Time,TemperatureF,DewpointF,PressureIn,WindDirection,WindDirectionDegrees,WindSpeedMPH,WindSpeedGustMPH,Humidity,HourlyPrecipIn,Conditions,Clouds,dailyrainin,SoftwareType,DateUTC
2013-04-02 00:00:00,67.8,60.7,30.00,SE,135,2.9,7.8,78,0.00,,---,0.00,VWS V14.01,2013-04-02 05:00:00,
2013-04-02 00:01:00,67.8,60.7,30.00,SE,135,5.4,8.7,78,0.00,,---,0.00,VWS V14.01,2013-04-02 05:01:00,
2013-04-02 00:02:00,67.8,60.7,30.00,SE,135,4.0,6.5,78,0.00,,---,0.00,VWS V14.01,2013-04-02 05:02:00,
2013-04-02 00:03:00,67.8,60.7,30.00,SSE,158,3.4,4.7,78,0.00,,---,0.00,VWS V14.01,2013-04-02 05:03:00,
2013-04-02 00:04:00,67.8,60.7,30.00,ESE,112,4.9,7.6,78,0.00,,---,0.04,VWS V14.01,2013-04-02 05:04:00,
2013-04-02 00:05:00,67.8,60.7,30.00,SSW,202,5.8,5.8,78,0.00,,---,0.00,VWS V14.01,2013-04-02 05:05:00,
2013-04-02 00:06:00,67.8,60.7,30.00,SE,135,6.0,6.0,78,0.00,,---,0.00,VWS V14.01,2013-04-02 05:06:00,
2013-04-02 00:07:00,67.8,60.7,30.00,SSW,202,4.0,6.0,78,0.00,,---,0.00,VWS V14.01,2013-04-02 05:07:00,
2013-04-02 00:08:00,67.6,60.5,30.00,South,180,6.3,6.7,78,0.00,,---,0.00,VWS V14.01,2013-04-02 05:08:00,
2013-04-02 00:09:00,67.6,60.5,30.00,SSW,202,4.3,6.3,78,0.00,,---,0.00,VWS V14.01,2013-04-02 05:09:00,
2013-04-02 00:10:00,67.6,60.2,30.00,West,270,3.6,6.0,77,0.00,,---,0.00,VWS V14.01,2013-04-02 05:10:00,
2013-04-02 00:11:00,67.6,60.2,30.00,ESE,112,5.8,6.3,77,0.00,,---,0.00,VWS V14.01,2013-04-02 05:11:00,
2013-04-02 00:12:00,67.4,60.0,30.00,South,180,3.4,6.3,77,0.00,,---,0.00,VWS V14.01,2013-04-02 05:12:00,
2013-04-02 00:13:00,67.4,60.0,30.00,South,180,2.9,6.3,77,0.00,,---,0.00,VWS V14.01,2013-04-02 05:13:00,
2013-04-02 00:14:00,67.4,60.0,30.00,SE,135,7.2,7.2,77,0.00,,---,0.00,VWS V14.01,2013-04-02 05:14:00,
2013-04-02 00:15:00,67.4,60.0,30.00,SSE,158,8.7,8.7,77,0.00,,---,0.00,VWS V14.01,2013-04-02 05:15:00,
2013-04-02 00:16:00,67.2,59.8,29.97,SSE,158,3.1,8.7,77,0.00,,---,0.00,VWS V14.01,2013-04-02 05:16:00,
2013-04-02 00:17:00,67.2,59.8,29.97,ESE,112,4.3,4.3,77,0.00,,---,0.00,VWS V14.01,2013-04-02 05:17:00,
2013-04-02 00:18:00,67.2,59.8,29.97,SE,135,7.4,7.4,77,0.00,,---,0.00,VWS V14.01,2013-04-02 05:18:00,
2013-04-02 00:19:00,67.1,59.6,29.97,SSE,158,3.8,7.8,77,0.00,,---,0.00,VWS V14.01,2013-04-02 05:19:00,
2013-04-02 00:20:00,67.1,59.6,29.97,SE,135,4.7,4.9,77,0.00,,---,0.00,VWS V14.01,2013-04-02 05:20:00,
2013-04-02 00:21:00,67.1,59.6,29.97,SSE,158,4.3,9.2,77,0.00,,---,0.00,VWS V14.01,2013-04-02 05:21:00,
2013-04-02 00:22:00,67.1,59.6,29.97,South,180,3.4,8.5,77,0.00,,---,0.00,VWS V14.01,2013-04-02 05:22:00,
2013-04-02 00:23:00,67.1,59.6,29.97,SSE,158,7.8,8.1,77,0.00,,---,0.00,VWS V14.01,2013-04-02 05:23:00,
2013-04-02 00:24:00,67.1,59.6,29.97,SSW,202,2.5,7.8,77,0.00,,---,0.00,VWS V14.01,2013-04-02 05:24:00,
2013-04-02 00:25:00,66.9,59.5,29.97,ENE,68,3.1,3.1,77,0.00,,---,0.00,VWS V14.01,2013-04-02 05:25:00,
2013-04-02 00:26:00,66.9,59.8,29.97,South,180,3.6,6.3,78,0.00,,---,0.00,VWS V14.01,2013-04-02 05:26:00,
2013-04-02 00:27:00,66.9,59.8,29.97,South,180,5.6,7.8,78,0.00,,---,0.00,VWS V14.01,2013-04-02 05:27:00,
2013-04-02 00:28:00,66.9,59.8,29.97,SE,135,2.9,5.6,78,0.00,,---,0.00,VWS V14.01,2013-04-02 05:28:00,
2013-04-02 00:29:00,66.9,59.8,29.97,SSW,202,8.7,14.8,78,0.00,,---,0.00,VWS V14.01,2013-04-02 05:29:00,
2013-04-02 00:30:00,66.9,59.8,29.97,South,180,6.0,11.4,78,0.00,,---,0.00,VWS V14.01,2013-04-02 05:30:00,
2013-04-02 00:31:00,66.9,59.8,30.00,SE,135,5.6,6.3,78,0.00,,---,0.00,VWS V14.01,2013-04-02 05:31:00,
2013-04-02 00:32:00,66.9,59.8,30.00,South,180,4.0,5.6,78,0.00,,---,0.00,VWS V14.01,2013-04-02 05:32:00,
2013-04-02 00:33:00,66.9,59.8,30.00,South,180,3.1,5.6,78,0.00,,---,0.00,VWS V14.01,2013-04-02 05:33:00,
2013-04-02 00:34:00,66.9,59.8,30.00,South,180,6.5,7.8,78,0.00,,---,0.00,VWS V14.01,2013-04-02 05:34:00,
2013-04-02 00:35:00,66.9,59.8,30.00,SSE,158,6.3,6.5,78,0.00,,---,0.00,VWS V14.01,2013-04-02 05:35:00,
2013-04-02 00:36:00,66.9,59.8,30.00,SE,135,3.1,8.1,78,0.00,,---,0.00,VWS V14.01,2013-04-02 05:36:00,
2013-04-02 00:37:00,66.9,59.8,30.00,South,180,2.0,5.6,78,0.00,,---,0.00,VWS V14.01,2013-04-02 05:37:00,
2013-04-02 00:38:00,66.9,59.8,30.00,SE,135,7.8,7.8,78,0.00,,---,0.00,VWS V14.01,2013-04-02 05:38:00,
2013-04-02 00:39:00,66.9,59.8,30.00,ESE,112,3.6,12.1,78,0.00,,---,0.00,VWS V14.01,2013-04-02 05:39:00,
2013-04-02 00:40:00,66.9,59.8,30.00,East,90,1.6,4.0,78,0.00,,---,0.00,VWS V14.01,2013-04-02 05:40:00,
2013-04-02 00:41:00,66.9,59.8,30.00,SE,135,6.0,6.0,78,0.00,,---,0.00,VWS V14.01,2013-04-02 05:41:00,
2013-04-02 00:42:00,66.7,59.7,30.00,SE,135,2.5,6.0,78,0.00,,---,0.00,VWS V14.01,2013-04-02 05:42:00,
2013-04-02 00:43:00,66.7,59.7,30.00,SSE,158,2.5,3.4,78,0.00,,---,0.00,VWS V14.01,2013-04-02 05:43:00,
2013-04-02 00:44:00,66.7,59.7,30.00,South,180,3.1,8.7,78,0.00,,---,0.00,VWS V14.01,2013-04-02 05:44:00,
2013-04-02 00:45:00,66.7,59.7,30.00,ESE,112,8.7,8.7,78,0.00,,---,0.00,VWS V14.01,2013-04-02 05:45:00,
2013-04-02 00:46:00,66.7,59.7,29.97,South,180,6.0,12.8,78,0.00,,---,0.00,VWS V14.01,2013-04-02 05:46:00,
2013-04-02 00:47:00,66.7,60.0,29.97,SSE,158,5.6,8.5,79,0.00,,---,0.00,VWS V14.01,2013-04-02 05:47:00,
2013-04-02 00:48:00,66.7,60.0,29.97,East,90,9.6,9.6,79,0.00,,---,0.00,VWS V14.01,2013-04-02 05:48:00,
2013-04-02 00:49:00,66.7,60.0,29.97,SE,135,2.0,9.6,79,0.00,,---,0.00,VWS V14.01,2013-04-02 05:49:00,
2013-04-02 00:50:00,66.7,60.0,29.97,East,90,4.7,7.4,79,0.00,,---,0.00,VWS V14.01,2013-04-02 05:50:00,
2013-04-02 00:51:00,66.7,60.0,29.97,SE,135,2.9,10.5,79,0.00,,---,0.00,VWS V14.01,2013-04-02 05:51:00,
2013-04-02 00:52:00,66.5,59.8,29.97,ESE,112,9.8,9.8,79,0.00,,---,0.00,VWS V14.01,2013-04-02 05:52:00,
2013-04-02 00:53:00,66.5,59.8,29.97,South,180,6.3,9.8,79,0.00,,---,0.00,VWS V14.01,2013-04-02 05:53:00,
2013-04-02 00:54:00,66.5,59.8,29.97,East,90,3.4,6.3,79,0.00,,---,0.00,VWS V14.01,2013-04-02 05:54:00,
2013-04-02 00:55:00,66.5,59.8,29.97,ESE,112,6.7,7.6,79,0.00,,---,0.00,VWS V14.01,2013-04-02 05:55:00,
2013-04-02 00:56:00,66.4,59.7,29.97,ESE,112,4.3,6.7,79,0.00,,---,0.00,VWS V14.01,2013-04-02 05:56:00,
2013-04-02 00:57:00,66.4,59.7,29.97,SE,135,3.4,6.5,79,0.00,,---,0.00,VWS V14.01,2013-04-02 05:57:00,
2013-04-02 00:58:00,66.4,59.7,29.97,SSW,202,5.4,5.4,79,0.00,,---,0.00,VWS V14.01,2013-04-02 05:58:00,
2013-04-02 00:59:00,66.4,59.7,29.97,SE,135,3.1,5.6,79,0.00,,---,0.00,VWS V14.01,2013-04-02 05:59:00,
2013-04-02 01:00:00,66.4,59.7,29.97,West,270,6.3,6.3,79,0.00,,---,0.00,VWS V14.01,2013-04-02 06:00:00,
2013-04-02 01:01:00,66.4,59.7,29.97,South,180,5.6,6.3,79,0.00,,---,0.00,VWS V14.01,2013-04-02 06:01:00,
2013-04-02 01:02:00,66.4,60.0,29.97,SE,135,1.6,8.7,80,0.00,,---,0.00,VWS V14.01,2013-04-02 06:02:00,
2013-04-02 01:03:00,66.4,60.0,29.97,ESE,112,3.1,6.5,80,0.00,,---,0.00,VWS V14.01,2013-04-02 06:03:00,
2013-04-02 01:04:00,66.4,60.0,29.97,South,180,8.7,8.7,80,0.00,,---,0.00,VWS V14.01,2013-04-02 06:04:00,
2013-04-02 01:05:00,66.2,59.8,29.97,SE,135,3.8,8.7,80,0.00,,---,0.00,VWS V14.01,2013-04-02 06:05:00,
2013-04-02 01:06:00,66.2,59.8,29.97,SSW,202,14.8,14.8,80,0.00,,---,0.00,VWS V14.01,2013-04-02 06:06:00,
2013-04-02 01:07:00,66.2,59.8,29.97,SE,135,2.7,14.8,80,0.00,,---,0.00,VWS V14.01,2013-04-02 06:07:00,
2013-04-02 01:08:00,66.2,59.8,29.97,SE,135,3.6,3.8,80,0.00,,---,0.00,VWS V14.01,2013-04-02 06:08:00,
2013-04-02 01:09:00,66.2,59.8,29.97,ESE,112,3.1,7.8,80,0.00,,---,0.00,VWS V14.01,2013-04-02 06:09:00,
2013-04-02 01:10:00,66.2,59.8,29.97,SE,135,5.8,8.5,80,0.00,,---,0.00,VWS V14.01,2013-04-02 06:10:00,
2013-04-02 01:11:00,66.2,59.8,29.97,South,180,3.4,6.3,80,0.00,,---,0.00,VWS V14.01,2013-04-02 06:11:00,
2013-04-02 01:12:00,66.2,59.8,29.97,ENE,68,5.8,5.8,80,0.00,,---,0.00,VWS V14.01,2013-04-02 06:12:00,
2013-04-02 01:13:00,66.2,59.8,29.97,South,180,4.0,9.8,80,0.00,,---,0.00,VWS V14.01,2013-04-02 06:13:00,
2013-04-02 01:14:00,66.2,59.8,29.97,SSW,202,6.9,6.9,80,0.00,,---,0.00,VWS V14.01,2013-04-02 06:14:00,
2013-04-02 01:15:00,66.2,59.8,29.97,SE,135,8.7,12.1,80,0.00,,---,0.00,VWS V14.01,2013-04-02 06:15:00,
2013-04-02 01:16:00,66.2,59.8,29.97,South,180,3.8,8.7,80,0.00,,---,0.00,VWS V14.01,2013-04-02 06:16:00,
2013-04-02 01:17:00,66.2,59.8,29.97,South,180,6.5,6.5,80,0.00,,---,0.00,VWS V14.01,2013-04-02 06:17:00,
2013-04-02 01:18:00,66.0,59.7,29.97,East,90,2.7,6.5,80,0.00,,---,0.00,VWS V14.01,2013-04-02 06:18:00,
2013-04-02 01:19:00,66.0,59.7,29.97,SSE,158,3.8,8.1,80,0.00,,---,0.00,VWS V14.01,2013-04-02 06:19:00,
2013-04-02 01:20:00,66.0,59.7,29.97,SE,135,5.8,6.3,80,0.00,,---,0.00,VWS V14.01,2013-04-02 06:20:00,
2013-04-02 01:21:00,66.0,60.0,29.97,West,270,4.3,9.8,81,0.00,,---,0.00,VWS V14.01,2013-04-02 06:21:00,
2013-04-02 01:22:00,66.0,59.7,29.97,ESE,112,6.7,6.7,80,0.00,,---,0.00,VWS V14.01,2013-04-02 06:22:00,
2013-04-02 01:23:00,66.0,60.0,29.97,SSE,158,3.1,7.6,81,0.00,,---,0.00,VWS V14.01,2013-04-02 06:23:00,
2013-04-02 01:24:00,66.0,60.0,29.97,SE,135,7.4,7.4,81,0.00,,---,0.00,VWS V14.01,2013-04-02 06:24:00,
2013-04-02 01:25:00,66.0,60.0,29.97,ESE,112,2.5,7.4,81,0.00,,---,0.00,VWS V14.01,2013-04-02 06:25:00,
2013-04-02 01:26:00,66.0,60.0,29.97,ESE,112,5.8,5.8,81,0.00,,---,0.00,VWS V14.01,2013-04-02 06:26:00,
2013-04-02 01:27:00,66.0,60.0,29.97,SSE,158,4.3,7.2,81,0.00,,---,0.00,VWS V14.01,2013-04-02 06:27:00,
2013-04-02 01:28:00,66.0,60.0,29.97,SE,135,6.9,6.9,81,0.00,,---,0.00,VWS V14.01,2013-04-02 06:28:00,
2013-04-02 01:29:00,66.0,60.0,29.97,ESE,112,8.7,8.7,81,0.00,,---,0.00,VWS V14.01,2013-04-02 06:29:00,
2013-04-02 01:30:00,66.0,60.0,29.97,North,0,4.7,8.7,81,0.00,,---,0.00,VWS V14.01,2013-04-02 06:30:00,
2013-04-02 01:31:00,66.0,60.0,29.94,SE,135,3.1,4.7,81,0.00,,---,0.00,VWS V14.01,2013-04-02 06:31:00,
2013-04-02 01:32:00,66.0,60.0,29.94,SE,135,7.4,7.8,81,0.00,,---,0.00,VWS V14.01,2013-04-02 06:32:00,
2013-04-02 01:33:00,66.0,60.0,29.94,South,180,4.7,7.4,81,0.00,,---,0.00,VWS V14.01,2013-04-02 06:33:00,
2013-04-02 01:34:00,66.0,60.0,29.94,SSE,158,2.0,6.0,81,0.00,,---,0.00,VWS V14.01,2013-04-02 06:34:00,
2013-04-02 01:35:00,66.0,60.0,29.94,ESE,112,2.5,7.8,81,0.00,,---,0.00,VWS V14.01,2013-04-02 06:35:00,
2013-04-02 01:36:00,66.0,60.0,29.94,SSE,158,2.5,5.8,81,0.00,,---,0.00,VWS V14.01,2013-04-02 06:36:00,
2013-04-02 01:37:00,66.0,60.0,29.94,ESE,112,3.8,7.8,81,0.00,,---,0.00,VWS V14.01,2013-04-02 06:37:00,
2013-04-02 01:38:00,66.0,60.0,29.94,SSE,158,6.3,6.3,81,0.00,,---,0.00,VWS V14.01,2013-04-02 06:38:00,
2013-04-02 01:39:00,65.8,59.8,29.94,South,180,1.1,6.3,81,0.00,,---,0.00,VWS V14.01,2013-04-02 06:39:00,
2013-04-02 01:40:00,65.8,59.8,29.94,SE,135,2.0,4.0,81,0.00,,---,0.00,VWS V14.01,2013-04-02 06:40:00,
2013-04-02 01:41:00,65.8,59.8,29.94,East,90,2.9,5.4,81,0.00,,---,0.00,VWS V14.01,2013-04-02 06:41:00,
2013-04-02 01:42:00,65.8,59.8,29.94,SSE,158,3.8,3.8,81,0.00,,---,0.00,VWS V14.01,2013-04-02 06:42:00,
2013-04-02 01:43:00,65.8,59.8,29.94,South,180,0.0,6.3,81,0.00,,---,0.00,VWS V14.01,2013-04-02 06:43:00,
2013-04-02 01:44:00,65.8,59.8,29.94,WSW,248,7.6,7.6,81,0.00,,---,0.00,VWS V14.01,2013-04-02 06:44:00,
2013-04-02 01:45:00,65.8,59.8,29.94,ESE,112,4.3,7.6,81,0.00,,---,0.00,VWS V14.01,2013-04-02 06:45:00,
2013-04-02 01:46:00,65.8,59.8,29.97,SSE,158,3.6,5.6,81,0.00,,---,0.00,VWS V14.01,2013-04-02 06:46:00,
2013-04-02 01:47:00,65.8,59.8,29.97,ESE,112,2.0,6.5,81,0.00,,---,0.00,VWS V14.01,2013-04-02 06:47:00,
2013-04-02 01:48:00,65.8,59.8,29.97,East,90,9.4,9.4,81,0.00,,---,0.00,VWS V14.01,2013-04-02 06:48:00,
2013-04-02 01:49:00,65.8,59.8,29.97,SE,135,2.7,9.4,81,0.00,,---,0.00,VWS V14.01,2013-04-02 06:49:00,
2013-04-02 01:50:00,65.8,59.8,29.97,SSW,202,6.3,8.7,81,0.00,,---,0.00,VWS V14.01,2013-04-02 06:50:00,
2013-04-02 01:51:00,65.8,59.8,29.97,East,90,1.3,6.3,81,0.00,,---,0.00,VWS V14.01,2013-04-02 06:51:00,
2013-04-02 01:52:00,65.8,59.8,29.97,SSE,158,2.9,2.9,81,0.00,,---,0.00,VWS V14.01,2013-04-02 06:52:00,
2013-04-02 01:53:00,65.8,59.8,29.97,SE,135,10.7,10.7,81,0.00,,---,0.00,VWS V14.01,2013-04-02 06:53:00,
2013-04-02 01:54:00,65.8,59.8,29.97,ESE,112,3.4,10.7,81,0.00,,---,0.00,VWS V14.01,2013-04-02 06:54:00,
2013-04-02 01:55:00,65.7,59.7,29.97,SE,135,11.0,11.0,81,0.00,,---,0.00,VWS V14.01,2013-04-02 06:55:00,
2013-04-02 01:56:00,65.7,59.7,29.97,South,180,4.5,11.0,81,0.00,,---,0.00,VWS V14.01,2013-04-02 06:56:00,
2013-04-02 01:57:00,65.7,59.7,29.97,ESE,112,3.1,4.7,81,0.00,,---,0.00,VWS V14.01,2013-04-02 06:57:00,
2013-04-02 01:58:00,65.7,59.7,29.97,SE,135,1.3,5.6,81,0.00,,---,0.00,VWS V14.01,2013-04-02 06:58:00,
2013-04-02 01:59:00,65.7,59.7,29.97,ESE,112,5.6,7.8,81,0.00,,---,0.00,VWS V14.01,2013-04-02 06:59:00,
2013-04-02 02:00:00,65.7,59.7,29.97,SW,225,3.6,5.6,81,0.00,,---,0.00,VWS V14.01,2013-04-02 07:00:00,
2013-04-02 02:01:00,65.7,59.7,29.97,ESE,112,5.4,5.4,81,0.00,,---,0.00,VWS V14.01,2013-04-02 07:01:00,
2013-04-02 02:02:00,65.7,59.7,29.97,South,180,4.9,7.6,81,0.00,,---,0.00,VWS V14.01,2013-04-02 07:02:00,
2013-04-02 02:03:00,65.7,59.7,29.97,SSE,158,4.3,6.0,81,0.00,,---,0.00,VWS V14.01,2013-04-02 07:03:00,
2013-04-02 02:04:00,65.7,59.7,29.97,ESE,112,2.0,4.3,81,0.00,,---,0.00,VWS V14.01,2013-04-02 07:04:00,
2013-04-02 02:05:00,65.7,59.7,29.97,South,180,10.1,10.1,81,0.00,,---,0.00,VWS V14.01,2013-04-02 07:05:00,
2013-04-02 02:06:00,65.7,59.7,29.97,SE,135,10.5,10.5,81,0.00,,---,0.00,VWS V14.01,2013-04-02 07:06:00,
2013-04-02 02:07:00,65.7,60.0,29.97,East,90,13.2,13.2,82,0.00,,---,0.00,VWS V14.01,2013-04-02 07:07:00,
2013-04-02 02:08:00,65.7,59.7,29.97,SW,225,5.8,13.2,81,0.00,,---,0.00,VWS V14.01,2013-04-02 07:08:00,
2013-04-02 02:09:00,65.7,59.7,29.97,ESE,112,2.7,5.8,81,0.00,,---,0.00,VWS V14.01,2013-04-02 07:09:00,
2013-04-02 02:10:00,65.5,59.5,29.97,South,180,8.5,8.5,81,0.00,,---,0.00,VWS V14.01,2013-04-02 07:10:00,
2013-04-02 02:11:00,65.5,59.5,29.97,ESE,112,3.1,8.5,81,0.00,,---,0.00,VWS V14.01,2013-04-02 07:11:00,
2013-04-02 02:12:00,65.5,59.5,29.97,SW,225,3.1,4.7,81,0.00,,---,0.00,VWS V14.01,2013-04-02 07:12:00,
2013-04-02 02:13:00,65.5,59.5,29.97,ESE,112,3.1,5.8,81,0.00,,---,0.00,VWS V14.01,2013-04-02 07:13:00,
2013-04-02 02:14:00,65.5,59.5,29.97,East,90,6.3,8.5,81,0.00,,---,0.00,VWS V14.01,2013-04-02 07:14:00,
2013-04-02 02:15:00,65.5,59.5,29.97,SE,135,6.3,6.3,81,0.00,,---,0.00,VWS V14.01,2013-04-02 07:15:00,
2013-04-02 02:16:00,65.5,59.5,29.97,East,90,3.6,6.3,81,0.00,,---,0.00,VWS V14.01,2013-04-02 07:16:00,
2013-04-02 02:17:00,65.5,59.5,29.97,East,90,6.0,7.6,81,0.00,,---,0.00,VWS V14.01,2013-04-02 07:17:00,
2013-04-02 02:18:00,65.5,59.8,29.97,East,90,6.3,10.3,82,0.00,,---,0.00,VWS V14.01,2013-04-02 07:18:00,
2013-04-02 02:19:00,65.5,59.5,29.97,ESE,112,2.9,6.3,81,0.00,,---,0.00,VWS V14.01,2013-04-02 07:19:00,
2013-04-02 02:20:00,65.5,59.8,29.97,SSW,202,6.0,8.7,82,0.00,,---,0.00,VWS V14.01,2013-04-02 07:20:00,
2013-04-02 02:21:00,65.5,59.8,29.97,SE,135,2.0,6.0,82,0.00,,---,0.00,VWS V14.01,2013-04-02 07:21:00,
2013-04-02 02:22:00,65.5,59.8,29.97,ESE,112,5.8,5.8,82,0.00,,---,0.00,VWS V14.01,2013-04-02 07:22:00,
2013-04-02 02:23:00,65.5,59.8,29.97,East,90,4.3,10.3,82,0.00,,---,0.00,VWS V14.01,2013-04-02 07:23:00,
2013-04-02 02:24:00,65.5,59.8,29.97,SE,135,7.8,8.5,82,0.00,,---,0.00,VWS V14.01,2013-04-02 07:24:00,
2013-04-02 02:25:00,65.5,59.8,29.97,East,90,3.8,7.6,82,0.00,,---,0.00,VWS V14.01,2013-04-02 07:25:00,
2013-04-02 02:26:00,65.5,59.8,29.97,SE,135,6.0,7.6,82,0.00,,---,0.00,VWS V14.01,2013-04-02 07:26:00,
2013-04-02 02:27:00,65.5,59.8,29.97,South,180,6.3,7.2,82,0.00,,---,0.00,VWS V14.01,2013-04-02 07:27:00,
2013-04-02 02:28:00,65.5,59.8,29.97,WSW,248,3.8,6.3,82,0.00,,---,0.00,VWS V14.01,2013-04-02 07:28:00,
2013-04-02 02:29:00,65.5,59.8,29.97,ESE,112,2.7,4.0,82,0.00,,---,0.00,VWS V14.01,2013-04-02 07:29:00,
2013-04-02 02:30:00,65.5,59.8,29.97,SSE,158,4.7,10.7,82,0.00,,---,0.00,VWS V14.01,2013-04-02 07:30:00,
2013-04-02 02:31:00,65.3,59.7,29.97,SSE,158,3.1,4.7,82,0.00,,---,0.00,VWS V14.01,2013-04-02 07:31:00,
2013-04-02 02:32:00,65.3,59.7,29.97,South,180,3.4,8.7,82,0.00,,---,0.00,VWS V14.01,2013-04-02 07:32:00,
2013-04-02 02:33:00,65.3,59.7,29.97,SSE,158,3.8,5.4,82,0.00,,---,0.00,VWS V14.01,2013-04-02 07:33:00,
2013-04-02 02:34:00,65.3,59.7,29.97,ESE,112,2.0,6.0,82,0.00,,---,0.00,VWS V14.01,2013-04-02 07:34:00,
2013-04-02 02:35:00,65.3,59.7,29.97,East,90,4.0,5.6,82,0.00,,---,0.00,VWS V14.01,2013-04-02 07:35:00,
2013-04-02 02:36:00,65.3,59.7,29.97,South,180,1.3,4.3,82,0.00,,---,0.00,VWS V14.01,2013-04-02 07:36:00,
2013-04-02 02:37:00,65.3,59.7,29.97,SE,135,1.6,3.6,82,0.00,,---,0.00,VWS V14.01,2013-04-02 07:37:00,
2013-04-02 02:38:00,65.3,59.7,29.97,ESE,112,3.1,3.1,82,0.00,,---,0.00,VWS V14.01,2013-04-02 07:38:00,
2013-04-02 02:39:00,65.3,59.7,29.97,ESE,112,2.9,7.8,82,0.00,,---,0.00,VWS V14.01,2013-04-02 07:39:00,
2013-04-02 02:40:00,65.3,59.7,29.97,East,90,3.1,3.1,82,0.00,,---,0.00,VWS V14.01,2013-04-02 07:40:00,
2013-04-02 02:41:00,65.3,59.7,29.97,East,90,6.0,6.0,82,0.00,,---,0.00,VWS V14.01,2013-04-02 07:41:00,
2013-04-02 02:42:00,65.1,59.8,29.97,SE,135,2.7,6.5,83,0.00,,---,0.00,VWS V14.01,2013-04-02 07:42:00,
2013-04-02 02:43:00,65.1,59.8,29.97,East,90,2.0,3.1,83,0.00,,---,0.00,VWS V14.01,2013-04-02 07:43:00,
2013-04-02 02:44:00,65.1,59.8,29.97,ESE,112,3.4,5.8,83,0.00,,---,0.00,VWS V14.01,2013-04-02 07:44:00,
2013-04-02 02:45:00,65.1,59.8,29.97,ESE,112,5.4,6.3,83,0.00,,---,0.00,VWS V14.01,2013-04-02 07:45:00,
2013-04-02 02:46:00,64.9,59.7,29.97,ESE,112,3.6,5.6,83,0.00,,---,0.00,VWS V14.01,2013-04-02 07:46:00,
2013-04-02 02:47:00,64.9,60.0,29.97,SE,135,2.7,4.9,84,0.00,,---,0.00,VWS V14.01,2013-04-02 07:47:00,
2013-04-02 02:48:00,64.9,60.0,29.97,ESE,112,2.9,4.7,84,0.00,,---,0.00,VWS V14.01,2013-04-02 07:48:00,
2013-04-02 02:49:00,64.8,59.8,29.97,SE,135,4.3,4.3,84,0.00,,---,0.00,VWS V14.01,2013-04-02 07:49:00,
2013-04-02 02:50:00,64.8,59.8,29.97,ESE,112,4.9,4.9,84,0.00,,---,0.00,VWS V14.01,2013-04-02 07:50:00,
2013-04-02 02:51:00,64.8,59.8,29.97,ESE,112,5.4,7.4,84,0.00,,---,0.00,VWS V14.01,2013-04-02 07:51:00,
2013-04-02 02:52:00,64.6,60.0,29.97,East,90,4.7,6.5,85,0.00,,---,0.00,VWS V14.01,2013-04-02 07:52:00,
2013-04-02 02:53:00,64.6,60.0,29.97,ENE,68,4.9,6.3,85,0.00,,---,0.00,VWS V14.01,2013-04-02 07:53:00,
2013-04-02 02:54:00,64.6,60.0,29.97,South,180,2.5,4.9,85,0.00,,---,0.00,VWS V14.01,2013-04-02 07:54:00,
2013-04-02 02:55:00,64.6,60.0,29.97,South,180,4.0,6.3,85,0.00,,---,0.00,VWS V14.01,2013-04-02 07:55:00,
2013-04-02 02:56:00,64.4,59.8,29.97,ESE,112,4.0,6.0,85,0.00,,---,0.00,VWS V14.01,2013-04-02 07:56:00,
2013-04-02 02:57:00,64.4,59.8,29.97,East,90,6.7,6.7,85,0.00,,---,0.00,VWS V14.01,2013-04-02 07:57:00,
2013-04-02 02:58:00,64.2,59.6,29.97,NNE,22,4.9,6.7,85,0.00,,---,0.00,VWS V14.01,2013-04-02 07:58:00,
2013-04-02 02:59:00,64.2,60.0,29.97,East,90,5.6,8.1,86,0.00,,---,0.00,VWS V14.01,2013-04-02 07:59:00,
2013-04-02 03:00:00,64.2,60.0,29.97,NNE,22,5.6,5.6,86,0.00,,---,0.00,VWS V14.01,2013-04-02 08:00:00,
2013-04-02 03:01:00,64.2,60.0,29.97,NE,45,3.1,6.3,86,0.00,,---,0.00,VWS V14.01,2013-04-02 08:01:00,
2013-04-02 03:02:00,64.1,59.8,29.97,SSE,158,3.4,9.8,86,0.00,,---,0.00,VWS V14.01,2013-04-02 08:02:00,
2013-04-02 03:03:00,64.1,59.8,29.97,ESE,112,3.8,3.8,86,0.00,,---,0.00,VWS V14.01,2013-04-02 08:03:00,
2013-04-02 03:04:00,64.1,59.8,29.97,NE,45,1.3,3.8,86,0.00,,---,0.00,VWS V14.01,2013-04-02 08:04:00,
2013-04-02 03:05:00,64.1,59.8,29.97,East,90,2.2,5.6,86,0.00,,---,0.00,VWS V14.01,2013-04-02 08:05:00,
2013-04-02 03:06:00,63.9,60.0,29.97,East,90,3.4,4.3,87,0.00,,---,0.00,VWS V14.01,2013-04-02 08:06:00,
2013-04-02 03:07:00,63.9,59.6,29.97,NNE,22,2.0,3.6,86,0.00,,---,0.00,VWS V14.01,2013-04-02 08:07:00,
2013-04-02 03:08:00,63.9,59.6,29.97,East,90,2.7,5.6,86,0.00,,---,0.00,VWS V14.01,2013-04-02 08:08:00,
2013-04-02 03:09:00,63.9,59.6,29.97,North,0,2.9,6.0,86,0.00,,---,0.00,VWS V14.01,2013-04-02 08:09:00,
2013-04-02 03:10:00,63.9,59.6,29.97,East,90,2.9,5.6,86,0.00,,---,0.00,VWS V14.01,2013-04-02 08:10:00,
2013-04-02 03:11:00,63.7,59.8,29.97,East,90,5.4,6.0,87,0.00,,---,0.00,VWS V14.01,2013-04-02 08:11:00,
2013-04-02 03:12:00,63.7,59.8,29.97,East,90,3.4,5.4,87,0.00,,---,0.00,VWS V14.01,2013-04-02 08:12:00,
2013-04-02 03:13:00,63.7,59.8,29.97,SE,135,2.7,3.4,87,0.00,,---,0.00,VWS V14.01,2013-04-02 08:13:00,
2013-04-02 03:14:00,63.7,59.8,29.97,East,90,4.3,4.3,87,0.00,,---,0.00,VWS V14.01,2013-04-02 08:14:00,
2013-04-02 03:15:00,63.7,59.8,29.97,SSW,202,5.6,7.6,87,0.00,,---,0.00,VWS V14.01,2013-04-02 08:15:00,
2013-04-02 03:16:00,63.7,59.8,29.97,ENE,68,4.3,5.6,87,0.00,,---,0.00,VWS V14.01,2013-04-02 08:16:00,
2013-04-02 03:17:00,63.7,59.8,29.97,SE,135,4.0,5.4,87,0.00,,---,0.00,VWS V14.01,2013-04-02 08:17:00,
2013-04-02 03:18:00,63.7,59.8,29.97,ESE,112,3.6,4.0,87,0.00,,---,0.00,VWS V14.01,2013-04-02 08:18:00,
2013-04-02 03:19:00,63.7,59.8,29.97,NNE,22,4.9,6.7,87,0.00,,---,0.00,VWS V14.01,2013-04-02 08:19:00,
2013-04-02 03:20:00,63.7,60.1,29.97,ESE,112,4.0,6.0,88,0.00,,---,0.00,VWS V14.01,2013-04-02 08:20:00,
2013-04-02 03:21:00,63.5,59.9,29.97,ESE,112,3.1,5.8,88,0.00,,---,0.00,VWS V14.01,2013-04-02 08:21:00,
2013-04-02 03:22:00,63.5,59.9,29.97,ENE,68,5.4,6.3,88,0.00,,---,0.00,VWS V14.01,2013-04-02 08:22:00,
2013-04-02 03:23:00,63.5,59.9,29.97,East,90,2.7,7.8,88,0.00,,---,0.00,VWS V14.01,2013-04-02 08:23:00,
2013-04-02 03:24:00,63.5,59.9,29.97,East,90,5.8,7.4,88,0.00,,---,0.00,VWS V14.01,2013-04-02 08:24:00,
2013-04-02 03:25:00,63.5,59.9,29.97,East,90,3.6,5.8,88,0.00,,---,0.00,VWS V14.01,2013-04-02 08:25:00,
2013-04-02 03:26:00,63.5,59.9,29.97,ENE,68,3.6,5.8,88,0.00,,---,0.00,VWS V14.01,2013-04-02 08:26:00,
2013-04-02 03:27:00,63.5,59.9,29.97,East,90,6.3,7.6,88,0.00,,---,0.00,VWS V14.01,2013-04-02 08:27:00,
2013-04-02 03:28:00,63.5,59.9,29.97,East,90,3.1,6.3,88,0.00,,---,0.00,VWS V14.01,2013-04-02 08:28:00,
2013-04-02 03:29:00,63.5,59.9,29.97,East,90,6.0,6.0,88,0.00,,---,0.00,VWS V14.01,2013-04-02 08:29:00,
2013-04-02 03:30:00,63.5,59.9,29.97,ENE,68,6.0,8.1,88,0.00,,---,0.00,VWS V14.01,2013-04-02 08:30:00,
2013-04-02 03:31:00,63.5,59.9,29.97,East,90,4.5,6.0,88,0.00,,---,0.00,VWS V14.01,2013-04-02 08:31:00,
2013-04-02 03:32:00,63.5,59.9,29.97,ESE,112,4.0,6.0,88,0.00,,---,0.00,VWS V14.01,2013-04-02 08:32:00,
2013-04-02 03:33:00,63.5,59.9,29.97,ESE,112,5.4,5.4,88,0.00,,---,0.00,VWS V14.01,2013-04-02 08:33:00,
2013-04-02 03:34:00,63.3,59.7,29.97,ESE,112,3.8,5.4,88,0.00,,---,0.00,VWS V14.01,2013-04-02 08:34:00,
2013-04-02 03:35:00,63.3,59.7,29.97,ESE,112,2.9,6.0,88,0.00,,---,0.00,VWS V14.01,2013-04-02 08:35:00,
2013-04-02 03:36:00,63.3,59.7,29.97,NE,45,5.6,5.6,88,0.00,,---,0.00,VWS V14.01,2013-04-02 08:36:00,
2013-04-02 03:37:00,63.3,59.7,29.97,ENE,68,3.6,5.6,88,0.00,,---,0.00,VWS V14.01,2013-04-02 08:37:00,
2013-04-02 03:38:00,63.3,60.1,29.97,East,90,2.9,7.4,89,0.00,,---,0.00,VWS V14.01,2013-04-02 08:38:00,
2013-04-02 03:39:00,63.2,59.9,29.97,SSE,158,2.7,4.0,89,0.00,,---,0.00,VWS V14.01,2013-04-02 08:39:00,
2013-04-02 03:40:00,63.2,59.6,29.97,South,180,4.3,7.2,88,0.00,,---,0.00,VWS V14.01,2013-04-02 08:40:00,
2013-04-02 03:41:00,63.2,59.9,29.97,SE,135,4.9,4.9,89,0.00,,---,0.00,VWS V14.01,2013-04-02 08:41:00,
2013-04-02 03:42:00,63.2,59.9,29.97,ENE,68,9.6,9.6,89,0.00,,---,0.00,VWS V14.01,2013-04-02 08:42:00,
2013-04-02 03:43:00,63.2,59.9,29.97,East,90,4.3,9.6,89,0.00,,---,0.00,VWS V14.01,2013-04-02 08:43:00,
2013-04-02 03:44:00,63.2,59.9,29.97,East,90,3.1,5.4,89,0.00,,---,0.00,VWS V14.01,2013-04-02 08:44:00,
2013-04-02 03:45:00,63.2,59.9,29.97,East,90,2.9,6.5,89,0.00,,---,0.00,VWS V14.01,2013-04-02 08:45:00,
2013-04-02 03:46:00,63.2,59.9,29.97,East,90,2.0,2.9,89,0.00,,---,0.00,VWS V14.01,2013-04-02 08:46:00,
2013-04-02 03:47:00,63.2,59.9,29.97,East,90,5.4,5.4,89,0.00,,---,0.00,VWS V14.01,2013-04-02 08:47:00,
2013-04-02 03:48:00,63.2,59.9,29.97,SE,135,2.7,5.4,89,0.00,,---,0.00,VWS V14.01,2013-04-02 08:48:00,
2013-04-02 03:49:00,63.2,59.9,29.97,ESE,112,2.7,5.8,89,0.00,,---,0.00,VWS V14.01,2013-04-02 08:49:00,
2013-04-02 03:50:00,63.2,59.9,29.97,ENE,68,1.1,4.0,89,0.00,,---,0.00,VWS V14.01,2013-04-02 08:50:00,
2013-04-02 03:51:00,63.2,59.9,29.97,SE,135,1.6,4.0,89,0.00,,---,0.00,VWS V14.01,2013-04-02 08:51:00,
2013-04-02 03:52:00,63.2,59.9,29.97,East,90,5.4,5.4,89,0.00,,---,0.00,VWS V14.01,2013-04-02 08:52:00,
2013-04-02 03:53:00,63.2,59.9,29.97,ESE,112,5.6,8.1,89,0.00,,---,0.00,VWS V14.01,2013-04-02 08:53:00,
2013-04-02 03:54:00,63.2,59.9,29.97,SE,135,3.8,8.5,89,0.00,,---,0.00,VWS V14.01,2013-04-02 08:54:00,
2013-04-02 03:55:00,63.2,59.9,29.97,SE,135,2.5,3.8,89,0.00,,---,0.00,VWS V14.01,2013-04-02 08:55:00,
2013-04-02 03:56:00,63.2,59.9,29.97,South,180,2.2,3.8,89,0.00,,---,0.00,VWS V14.01,2013-04-02 08:56:00,
2013-04-02 03:57:00,63.2,59.9,29.97,SE,135,2.5,2.5,89,0.00,,---,0.00,VWS V14.01,2013-04-02 08:57:00,
2013-04-02 03:58:00,63.2,59.9,29.97,SE,135,3.4,4.9,89,0.00,,---,0.00,VWS V14.01,2013-04-02 08:58:00,
2013-04-02 03:59:00,63.2,59.9,29.97,SSE,158,4.7,6.5,89,0.00,,---,0.00,VWS V14.01,2013-04-02 08:59:00,
2013-04-02 04:00:00,63.0,59.7,29.97,East,90,2.0,4.7,89,0.00,,---,0.00,VWS V14.01,2013-04-02 09:00:00,
2013-04-02 04:01:00,63.0,59.7,29.97,ESE,112,3.4,4.9,89,0.00,,---,0.00,VWS V14.01,2013-04-02 09:01:00,
2013-04-02 04:02:00,63.0,59.7,29.97,SE,135,3.8,7.6,89,0.00,,---,0.00,VWS V14.01,2013-04-02 09:02:00,
2013-04-02 04:03:00,63.0,59.7,29.97,SE,135,4.0,4.0,89,0.00,,---,0.00,VWS V14.01,2013-04-02 09:03:00,
2013-04-02 04:04:00,63.0,59.7,29.97,ESE,112,2.7,4.0,89,0.00,,---,0.00,VWS V14.01,2013-04-02 09:04:00,
2013-04-02 04:05:00,63.0,59.7,29.97,SE,135,3.1,7.8,89,0.00,,---,0.00,VWS V14.01,2013-04-02 09:05:00,
2013-04-02 04:06:00,63.0,60.0,29.97,NE,45,7.6,10.1,90,0.00,,---,0.00,VWS V14.01,2013-04-02 09:06:00,
2013-04-02 04:07:00,63.0,60.0,29.97,East,90,3.1,7.6,90,0.00,,---,0.00,VWS V14.01,2013-04-02 09:07:00,
2013-04-02 04:08:00,63.0,60.0,29.97,SE,135,5.8,5.8,90,0.00,,---,0.00,VWS V14.01,2013-04-02 09:08:00,
2013-04-02 04:09:00,63.0,59.7,29.97,ESE,112,4.0,5.8,89,0.00,,---,0.00,VWS V14.01,2013-04-02 09:09:00,
2013-04-02 04:10:00,63.0,59.7,29.97,East,90,4.3,4.9,89,0.00,,---,0.00,VWS V14.01,2013-04-02 09:10:00,
2013-04-02 04:11:00,63.0,59.7,29.97,ESE,112,3.8,5.8,89,0.00,,---,0.00,VWS V14.01,2013-04-02 09:11:00,
2013-04-02 04:12:00,63.0,60.0,29.97,ESE,112,4.0,6.0,90,0.00,,---,0.00,VWS V14.01,2013-04-02 09:12:00,
2013-04-02 04:13:00,63.0,60.0,29.97,ESE,112,4.9,6.0,90,0.00,,---,0.00,VWS V14.01,2013-04-02 09:13:00,
2013-04-02 04:14:00,63.0,60.0,29.97,East,90,2.0,5.4,90,0.00,,---,0.00,VWS V14.01,2013-04-02 09:14:00,
2013-04-02 04:15:00,63.0,59.7,29.97,South,180,1.1,3.6,89,0.00,,---,0.00,VWS V14.01,2013-04-02 09:15:00,
2013-04-02 04:16:00,63.0,59.7,30.00,East,90,0.0,1.1,89,0.00,,---,0.00,VWS V14.01,2013-04-02 09:16:00,
2013-04-02 04:17:00,63.0,59.7,30.00,NE,45,0.0,1.3,89,0.00,,---,0.00,VWS V14.01,2013-04-02 09:17:00,
2013-04-02 04:18:00,63.0,59.7,30.00,South,180,0.0,0.0,89,0.00,,---,0.00,VWS V14.01,2013-04-02 09:18:00,
2013-04-02 04:19:00,63.0,59.7,30.00,East,90,2.7,4.0,89,0.00,,---,0.00,VWS V14.01,2013-04-02 09:19:00,
2013-04-02 04:20:00,63.0,59.7,30.00,SE,135,2.7,2.7,89,0.00,,---,0.00,VWS V14.01,2013-04-02 09:20:00,
2013-04-02 04:21:00,63.0,59.7,30.00,East,90,2.5,5.6,89,0.00,,---,0.00,VWS V14.01,2013-04-02 09:21:00,
2013-04-02 04:22:00,63.0,59.7,30.00,SE,135,1.6,2.5,89,0.00,,---,0.00,VWS V14.01,2013-04-02 09:22:00,
2013-04-02 04:23:00,63.0,59.7,30.00,South,180,2.0,2.5,89,0.00,,---,0.00,VWS V14.01,2013-04-02 09:23:00,
2013-04-02 04:24:00,63.0,59.7,30.00,ESE,112,0.0,2.2,89,0.00,,---,0.00,VWS V14.01,2013-04-02 09:24:00,
2013-04-02 04:25:00,63.0,59.7,30.00,ESE,112,2.0,2.0,89,0.00,,---,0.00,VWS V14.01,2013-04-02 09:25:00,
2013-04-02 04:26:00,63.0,59.7,30.00,SSW,202,0.0,2.0,89,0.00,,---,0.00,VWS V14.01,2013-04-02 09:26:00,
2013-04-02 04:27:00,63.0,59.7,30.00,SE,135,3.6,4.7,89,0.00,,---,0.00,VWS V14.01,2013-04-02 09:27:00,
2013-04-02 04:28:00,63.0,59.7,30.00,SE,135,2.0,4.0,89,0.00,,---,0.00,VWS V14.01,2013-04-02 09:28:00,
2013-04-02 04:29:00,63.0,59.7,30.00,SE,135,4.0,4.0,89,0.00,,---,0.00,VWS V14.01,2013-04-02 09:29:00,
2013-04-02 04:30:00,63.0,59.7,30.00,ESE,112,2.5,4.7,89,0.00,,---,0.00,VWS V14.01,2013-04-02 09:30:00,
2013-04-02 04:31:00,63.0,59.7,30.00,ESE,112,3.6,3.6,89,0.00,,---,0.00,VWS V14.01,2013-04-02 09:31:00,
2013-04-02 04:32:00,63.0,59.7,30.00,ESE,112,3.6,3.6,89,0.00,,---,0.00,VWS V14.01,2013-04-02 09:32:00,
2013-04-02 04:33:00,63.0,59.7,30.00,East,90,3.6,3.8,89,0.00,,---,0.00,VWS V14.01,2013-04-02 09:33:00,
2013-04-02 04:34:00,63.2,59.9,30.00,ESE,112,2.0,3.6,89,0.00,,---,0.00,VWS V14.01,2013-04-02 09:34:00,
2013-04-02 04:35:00,63.2,59.9,30.00,East,90,4.0,5.6,89,0.00,,---,0.00,VWS V14.01,2013-04-02 09:35:00,
2013-04-02 04:36:00,63.2,59.9,30.00,SE,135,2.7,4.0,89,0.00,,---,0.00,VWS V14.01,2013-04-02 09:36:00,
2013-04-02 04:37:00,63.2,59.9,30.00,SE,135,2.5,4.0,89,0.00,,---,0.00,VWS V14.01,2013-04-02 09:37:00,
2013-04-02 04:38:00,63.2,59.9,30.00,ESE,112,2.7,2.7,89,0.00,,---,0.00,VWS V14.01,2013-04-02 09:38:00,
2013-04-02 04:39:00,63.2,59.9,30.00,ESE,112,2.0,2.9,89,0.00,,---,0.00,VWS V14.01,2013-04-02 09:39:00,
2013-04-02 04:40:00,63.2,59.9,30.00,East,90,4.9,4.9,89,0.00,,---,0.00,VWS V14.01,2013-04-02 09:40:00,
2013-04-02 04:41:00,63.2,59.9,30.00,ESE,112,3.6,4.9,89,0.00,,---,0.00,VWS V14.01,2013-04-02 09:41:00,
2013-04-02 04:42:00,63.2,59.9,30.00,East,90,2.7,3.6,89,0.00,,---,0.00,VWS V14.01,2013-04-02 09:42:00,
2013-04-02 04:43:00,63.2,59.9,30.00,ESE,112,0.0,3.1,89,0.00,,---,0.00,VWS V14.01,2013-04-02 09:43:00,
2013-04-02 04:44:00,63.2,59.9,30.00,East,90,0.9,3.4,89,0.00,,---,0.00,VWS V14.01,2013-04-02 09:44:00,
2013-04-02 04:45:00,63.2,59.9,30.00,North,0,1.6,2.0,89,0.00,,---,0.00,VWS V14.01,2013-04-02 09:45:00,
2013-04-02 04:46:00,63.2,59.9,30.00,ENE,68,3.8,3.8,89,0.00,,---,0.00,VWS V14.01,2013-04-02 09:46:00,
2013-04-02 04:47:00,63.2,59.9,30.00,ENE,68,1.1,3.8,89,0.00,,---,0.00,VWS V14.01,2013-04-02 09:47:00,
2013-04-02 04:48:00,63.0,59.7,30.00,ESE,112,3.1,3.1,89,0.00,,---,0.00,VWS V14.01,2013-04-02 09:48:00,
2013-04-02 04:49:00,63.0,59.7,30.00,East,90,2.5,3.1,89,0.00,,---,0.00,VWS V14.01,2013-04-02 09:49:00,
2013-04-02 04:50:00,63.0,59.7,30.00,ESE,112,2.5,3.8,89,0.00,,---,0.00,VWS V14.01,2013-04-02 09:50:00,
2013-04-02 04:51:00,63.0,59.7,30.00,ESE,112,4.0,4.0,89,0.00,,---,0.00,VWS V14.01,2013-04-02 09:51:00,
2013-04-02 04:52:00,63.0,59.7,30.00,East,90,2.9,4.0,89,0.00,,---,0.00,VWS V14.01,2013-04-02 09:52:00,
2013-04-02 04:53:00,63.0,59.7,30.00,NE,45,2.9,4.0,89,0.00,,---,0.00,VWS V14.01,2013-04-02 09:53:00,
2013-04-02 04:54:00,63.0,59.7,30.00,ENE,68,2.5,3.8,89,0.00,,---,0.00,VWS V14.01,2013-04-02 09:54:00,
2013-04-02 04:55:00,63.0,59.7,30.00,East,90,4.9,4.9,89,0.00,,---,0.00,VWS V14.01,2013-04-02 09:55:00,
2013-04-02 04:56:00,63.0,59.7,30.00,ENE,68,2.9,5.8,89,0.00,,---,0.00,VWS V14.01,2013-04-02 09:56:00,
2013-04-02 04:57:00,63.0,59.7,30.00,East,90,2.9,4.7,89,0.00,,---,0.00,VWS V14.01,2013-04-02 09:57:00,
2013-04-02 04:58:00,62.8,59.5,30.00,ESE,112,2.0,4.3,89,0.00,,---,0.00,VWS V14.01,2013-04-02 09:58:00,
2013-04-02 04:59:00,62.8,59.5,30.00,NE,45,3.4,3.4,89,0.00,,---,0.00,VWS V14.01,2013-04-02 09:59:00,
2013-04-02 05:00:00,62.8,59.5,30.00,ESE,112,2.5,3.4,89,0.00,,---,0.00,VWS V14.01,2013-04-02 10:00:00,
2013-04-02 05:01:00,62.8,59.5,29.97,ENE,68,6.7,6.7,89,0.00,,---,0.00,VWS V14.01,2013-04-02 10:01:00,
2013-04-02 05:02:00,62.8,59.5,29.97,East,90,2.9,6.7,89,0.00,,---,0.00,VWS V14.01,2013-04-02 10:02:00,
2013-04-02 05:03:00,62.8,59.5,29.97,East,90,2.9,4.0,89,0.00,,---,0.00,VWS V14.01,2013-04-02 10:03:00,
2013-04-02 05:04:00,62.8,59.5,29.97,East,90,2.7,2.9,89,0.00,,---,0.00,VWS V14.01,2013-04-02 10:04:00,
2013-04-02 05:05:00,62.8,59.5,29.97,NE,45,4.0,6.7,89,0.00,,---,0.00,VWS V14.01,2013-04-02 10:05:00,
2013-04-02 05:06:00,62.8,59.5,29.97,SE,135,4.9,4.9,89,0.00,,---,0.00,VWS V14.01,2013-04-02 10:06:00,
2013-04-02 05:07:00,62.8,59.5,29.97,ESE,112,2.7,4.9,89,0.00,,---,0.00,VWS V14.01,2013-04-02 10:07:00,
2013-04-02 05:08:00,62.8,59.5,29.97,SE,135,3.6,3.6,89,0.00,,---,0.00,VWS V14.01,2013-04-02 10:08:00,
2013-04-02 05:09:00,62.8,59.5,29.97,SE,135,5.8,5.8,89,0.00,,---,0.00,VWS V14.01,2013-04-02 10:09:00,
2013-04-02 05:10:00,62.8,59.8,29.97,ESE,112,3.8,5.8,90,0.00,,---,0.00,VWS V14.01,2013-04-02 10:10:00,
2013-04-02 05:11:00,62.8,59.8,29.97,ENE,68,4.3,4.3,90,0.00,,---,0.00,VWS V14.01,2013-04-02 10:11:00,
2013-04-02 05:12:00,62.8,59.8,29.97,ESE,112,3.1,4.3,90,0.00,,---,0.00,VWS V14.01,2013-04-02 10:12:00,
2013-04-02 05:13:00,63.0,60.0,29.97,SE,135,3.6,3.8,90,0.00,,---,0.00,VWS V14.01,2013-04-02 10:13:00,
2013-04-02 05:14:00,63.0,60.0,29.97,East,90,3.8,4.0,90,0.00,,---,0.00,VWS V14.01,2013-04-02 10:14:00,
2013-04-02 05:15:00,63.0,60.0,29.97,ENE,68,2.9,5.4,90,0.00,,---,0.00,VWS V14.01,2013-04-02 10:15:00,
2013-04-02 05:16:00,63.0,60.0,30.00,ESE,112,2.9,3.1,90,0.00,,---,0.00,VWS V14.01,2013-04-02 10:16:00,
2013-04-02 05:17:00,63.0,60.0,30.00,NW,315,0.0,2.9,90,0.00,,---,0.00,VWS V14.01,2013-04-02 10:17:00,
2013-04-02 05:18:00,63.0,59.7,30.00,East,90,1.6,1.6,89,0.00,,---,0.00,VWS V14.01,2013-04-02 10:18:00,
2013-04-02 05:19:00,63.0,59.7,30.00,South,180,2.0,2.7,89,0.00,,---,0.00,VWS V14.01,2013-04-02 10:19:00,
2013-04-02 05:20:00,63.0,59.7,30.00,ESE,112,4.0,4.0,89,0.00,,---,0.00,VWS V14.01,2013-04-02 10:20:00,
2013-04-02 05:21:00,63.0,59.7,30.00,ENE,68,3.4,4.7,89,0.00,,---,0.00,VWS V14.01,2013-04-02 10:21:00,
2013-04-02 05:22:00,63.0,59.7,30.00,SE,135,4.0,5.4,89,0.00,,---,0.00,VWS V14.01,2013-04-02 10:22:00,
2013-04-02 05:23:00,63.0,59.7,30.00,ESE,112,2.9,4.0,89,0.00,,---,0.00,VWS V14.01,2013-04-02 10:23:00,
2013-04-02 05:24:00,63.0,59.7,30.00,ESE,112,2.7,4.9,89,0.00,,---,0.00,VWS V14.01,2013-04-02 10:24:00,
2013-04-02 05:25:00,63.0,59.7,30.00,ESE,112,2.9,2.9,89,0.00,,---,0.00,VWS V14.01,2013-04-02 10:25:00,
2013-04-02 05:26:00,63.0,59.7,30.00,SE,135,1.1,2.9,89,0.00,,---,0.00,VWS V14.01,2013-04-02 10:26:00,
2013-04-02 05:27:00,63.0,59.7,30.00,East,90,2.7,2.7,89,0.00,,---,0.00,VWS V14.01,2013-04-02 10:27:00,
2013-04-02 05:28:00,63.2,59.9,30.00,SE,135,2.7,3.6,89,0.00,,---,0.00,VWS V14.01,2013-04-02 10:28:00,
2013-04-02 05:29:00,63.2,59.9,30.00,ESE,112,1.1,2.9,89,0.00,,---,0.00,VWS V14.01,2013-04-02 10:29:00,
2013-04-02 05:30:00,63.2,59.9,30.00,SE,135,4.0,4.0,89,0.00,,---,0.00,VWS V14.01,2013-04-02 10:30:00,
2013-04-02 05:31:00,63.2,59.9,30.00,East,90,3.4,4.0,89,0.00,,---,0.00,VWS V14.01,2013-04-02 10:31:00,
2013-04-02 05:32:00,63.2,59.9,30.00,SE,135,3.6,3.6,89,0.00,,---,0.00,VWS V14.01,2013-04-02 10:32:00,
2013-04-02 05:33:00,63.2,59.9,30.00,East,90,5.8,5.8,89,0.00,,---,0.00,VWS V14.01,2013-04-02 10:33:00,
2013-04-02 05:34:00,63.2,59.9,30.00,SE,135,3.8,5.8,89,0.00,,---,0.00,VWS V14.01,2013-04-02 10:34:00,
2013-04-02 05:35:00,63.2,59.9,30.00,North,0,2.5,3.8,89,0.00,,---,0.00,VWS V14.01,2013-04-02 10:35:00,
2013-04-02 05:36:00,63.2,59.9,30.00,ENE,68,4.3,4.9,89,0.00,,---,0.00,VWS V14.01,2013-04-02 10:36:00,
2013-04-02 05:37:00,63.2,59.9,30.00,ESE,112,3.8,4.3,89,0.00,,---,0.00,VWS V14.01,2013-04-02 10:37:00,
2013-04-02 05:38:00,63.2,59.9,30.00,East,90,2.5,4.0,89,0.00,,---,0.00,VWS V14.01,2013-04-02 10:38:00,
2013-04-02 05:39:00,63.2,59.9,30.00,ESE,112,1.6,2.5,89,0.00,,---,0.00,VWS V14.01,2013-04-02 10:39:00,
2013-04-02 05:40:00,63.2,59.9,30.00,East,90,3.8,3.8,89,0.00,,---,0.00,VWS V14.01,2013-04-02 10:40:00,
2013-04-02 05:41:00,63.2,59.9,30.00,NE,45,3.4,3.8,89,0.00,,---,0.00,VWS V14.01,2013-04-02 10:41:00,
2013-04-02 05:42:00,63.2,59.9,30.00,ESE,112,7.2,7.2,89,0.00,,---,0.00,VWS V14.01,2013-04-02 10:42:00,
2013-04-02 05:43:00,63.2,59.9,30.00,ENE,68,3.8,7.2,89,0.00,,---,0.00,VWS V14.01,2013-04-02 10:43:00,
2013-04-02 05:44:00,63.2,59.9,30.00,SE,135,4.9,6.3,89,0.00,,---,0.00,VWS V14.01,2013-04-02 10:44:00,
2013-04-02 05:45:00,63.2,59.9,30.00,North,0,3.4,4.9,89,0.00,,---,0.00,VWS V14.01,2013-04-02 10:45:00,
2013-04-02 05:46:00,63.2,59.9,30.00,ESE,112,4.3,4.3,89,0.00,,---,0.00,VWS V14.01,2013-04-02 10:46:00,
2013-04-02 05:47:00,63.2,59.9,30.00,ENE,68,3.1,4.3,89,0.00,,---,0.00,VWS V14.01,2013-04-02 10:47:00,
2013-04-02 05:48:00,63.2,59.9,30.00,East,90,3.8,4.0,89,0.00,,---,0.00,VWS V14.01,2013-04-02 10:48:00,
2013-04-02 05:49:00,63.0,59.7,30.00,SE,135,3.1,3.8,89,0.00,,---,0.00,VWS V14.01,2013-04-02 10:49:00,
2013-04-02 05:50:00,63.0,59.7,30.00,ESE,112,2.7,3.4,89,0.00,,---,0.00,VWS V14.01,2013-04-02 10:50:00,
2013-04-02 05:51:00,63.0,59.7,30.00,ESE,112,2.7,2.7,89,0.00,,---,0.00,VWS V14.01,2013-04-02 10:51:00,
2013-04-02 05:52:00,63.0,59.7,30.00,ESE,112,2.7,2.7,89,0.00,,---,0.00,VWS V14.01,2013-04-02 10:52:00,
2013-04-02 05:53:00,63.0,59.7,30.00,ESE,112,2.7,2.7,89,0.00,,---,0.00,VWS V14.01,2013-04-02 10:53:00,
2013-04-02 05:54:00,63.0,59.7,30.00,ESE,112,2.7,2.7,89,0.00,,---,0.00,VWS V14.01,2013-04-02 10:54:00,
2013-04-02 05:55:00,63.0,59.7,30.00,ESE,112,2.7,2.7,89,0.00,,---,0.00,VWS V14.01,2013-04-02 10:55:00,
2013-04-02 05:56:00,63.0,59.7,30.00,ESE,112,2.7,2.7,89,0.00,,---,0.00,VWS V14.01,2013-04-02 10:56:00,
2013-04-02 05:57:00,63.0,59.7,30.00,ESE,112,2.7,2.7,89,0.00,,---,0.00,VWS V14.01,2013-04-02 10:57:00,
2013-04-02 05:58:00,63.0,60.0,30.00,ESE,112,2.7,2.7,90,0.00,,---,0.00,VWS V14.01,2013-04-02 10:58:00,
2013-04-02 05:59:00,63.0,60.0,30.00,ESE,112,2.7,2.7,90,0.00,,---,0.00,VWS V14.01,2013-04-02 10:59:00,
2013-04-02 06:00:00,63.0,60.0,30.00,ESE,112,2.7,2.7,90,0.00,,---,0.00,VWS V14.01,2013-04-02 11:00:00,
2013-04-02 06:01:00,63.0,60.0,29.97,ESE,112,2.7,2.7,90,0.00,,---,0.00,VWS V14.01,2013-04-02 11:01:00,
2013-04-02 06:02:00,63.0,60.0,29.97,ESE,112,2.7,2.7,90,0.00,,---,0.00,VWS V14.01,2013-04-02 11:02:00,
2013-04-02 06:03:00,63.0,60.0,29.97,ESE,112,2.7,2.7,90,0.00,,---,0.00,VWS V14.01,2013-04-02 11:03:00,
2013-04-02 06:04:00,63.0,60.0,29.97,ESE,112,2.7,2.7,90,0.00,,---,0.00,VWS V14.01,2013-04-02 11:04:00,
2013-04-02 06:05:00,63.0,60.0,29.97,ESE,112,2.7,2.7,90,0.00,,---,0.00,VWS V14.01,2013-04-02 11:05:00,
2013-04-02 06:06:00,63.0,60.0,29.97,ESE,112,2.7,2.7,90,0.00,,---,0.00,VWS V14.01,2013-04-02 11:06:00,
2013-04-02 06:07:00,63.0,60.0,29.97,SE,135,2.5,6.0,90,0.00,,---,0.00,VWS V14.01,2013-04-02 11:07:00,
2013-04-02 06:08:00,63.0,60.0,29.97,South,180,2.5,4.3,90,0.00,,---,0.00,VWS V14.01,2013-04-02 11:08:00,
2013-04-02 06:09:00,63.0,60.0,29.97,ESE,112,2.7,2.7,90,0.00,,---,0.00,VWS V14.01,2013-04-02 11:09:00,
2013-04-02 06:10:00,63.0,60.0,29.97,SE,135,3.4,4.3,90,0.00,,---,0.00,VWS V14.01,2013-04-02 11:10:00,
2013-04-02 06:11:00,63.0,60.0,29.97,ESE,112,2.2,4.7,90,0.00,,---,0.00,VWS V14.01,2013-04-02 11:11:00,
2013-04-02 06:12:00,63.0,60.0,29.97,East,90,3.6,3.6,90,0.00,,---,0.00,VWS V14.01,2013-04-02 11:12:00,
2013-04-02 06:13:00,63.2,60.2,29.97,ESE,112,1.1,3.6,90,0.00,,---,0.00,VWS V14.01,2013-04-02 11:13:00,
2013-04-02 06:14:00,63.2,60.2,29.97,East,90,4.3,5.8,90,0.00,,---,0.00,VWS V14.01,2013-04-02 11:14:00,
2013-04-02 06:15:00,63.2,60.2,29.97,SE,135,4.0,4.3,90,0.00,,---,0.00,VWS V14.01,2013-04-02 11:15:00,
2013-04-02 06:16:00,63.2,60.2,30.00,East,90,2.0,4.0,90,0.00,,---,0.00,VWS V14.01,2013-04-02 11:16:00,
2013-04-02 06:17:00,63.2,60.2,30.00,East,90,3.6,4.9,90,0.00,,---,0.00,VWS V14.01,2013-04-02 11:17:00,
2013-04-02 06:18:00,63.2,60.2,30.00,SE,135,3.4,3.6,90,0.00,,---,0.00,VWS V14.01,2013-04-02 11:18:00,
2013-04-02 06:19:00,63.2,60.2,30.00,SSE,158,2.2,3.4,90,0.00,,---,0.00,VWS V14.01,2013-04-02 11:19:00,
2013-04-02 06:20:00,63.2,60.2,30.00,SSE,158,0.0,2.2,90,0.00,,---,0.00,VWS V14.01,2013-04-02 11:20:00,
2013-04-02 06:21:00,63.2,60.2,30.00,ESE,112,0.0,0.0,90,0.00,,---,0.00,VWS V14.01,2013-04-02 11:21:00,
2013-04-02 06:22:00,63.2,60.2,30.00,SE,135,0.9,2.2,90,0.00,,---,0.00,VWS V14.01,2013-04-02 11:22:00,
2013-04-02 06:23:00,63.2,60.2,30.00,SE,135,3.6,4.9,90,0.00,,---,0.00,VWS V14.01,2013-04-02 11:23:00,
2013-04-02 06:24:00,63.2,60.2,30.00,ESE,112,3.1,4.7,90,0.00,,---,0.00,VWS V14.01,2013-04-02 11:24:00,
2013-04-02 06:25:00,63.2,60.2,30.00,South,180,3.1,4.9,90,0.00,,---,0.00,VWS V14.01,2013-04-02 11:25:00,
2013-04-02 06:26:00,63.2,60.2,30.00,East,90,4.0,4.0,90,0.00,,---,0.00,VWS V14.01,2013-04-02 11:26:00,
2013-04-02 06:27:00,63.2,60.2,30.00,SSE,158,3.8,4.3,90,0.00,,---,0.00,VWS V14.01,2013-04-02 11:27:00,
2013-04-02 06:28:00,63.2,60.2,30.00,ESE,112,5.6,5.6,90,0.00,,---,0.00,VWS V14.01,2013-04-02 11:28:00,
2013-04-02 06:29:00,63.2,60.2,30.00,SE,135,4.3,5.6,90,0.00,,---,0.00,VWS V14.01,2013-04-02 11:29:00,
2013-04-02 06:30:00,63.2,60.2,30.00,ESE,112,4.0,5.8,90,0.00,,---,0.00,VWS V14.01,2013-04-02 11:30:00,
2013-04-02 06:31:00,63.2,60.2,29.97,SE,135,2.0,4.3,90,0.00,,---,0.00,VWS V14.01,2013-04-02 11:31:00,
2013-04-02 06:32:00,63.2,60.2,29.97,SE,135,1.1,2.5,90,0.00,,---,0.00,VWS V14.01,2013-04-02 11:32:00,
2013-04-02 06:33:00,63.2,60.2,29.97,ESE,112,1.3,2.9,90,0.00,,---,0.00,VWS V14.01,2013-04-02 11:33:00,
2013-04-02 06:34:00,63.2,60.2,29.97,ESE,112,2.5,4.7,90,0.00,,---,0.00,VWS V14.01,2013-04-02 11:34:00,
2013-04-02 06:35:00,63.2,60.2,29.97,SE,135,5.4,5.6,90,0.00,,---,0.00,VWS V14.01,2013-04-02 11:35:00,
2013-04-02 06:36:00,63.2,60.2,29.97,ESE,112,5.6,5.6,90,0.00,,---,0.00,VWS V14.01,2013-04-02 11:36:00,
2013-04-02 06:37:00,63.2,60.2,29.97,SE,135,2.5,6.0,90,0.00,,---,0.00,VWS V14.01,2013-04-02 11:37:00,
2013-04-02 06:38:00,63.2,60.2,29.97,ESE,112,3.4,5.8,90,0.00,,---,0.00,VWS V14.01,2013-04-02 11:38:00,
2013-04-02 06:39:00,63.2,60.2,29.97,SW,225,2.0,3.8,90,0.00,,---,0.00,VWS V14.01,2013-04-02 11:39:00,
2013-04-02 06:40:00,63.2,60.2,29.97,East,90,2.0,2.7,90,0.00,,---,0.00,VWS V14.01,2013-04-02 11:40:00,
2013-04-02 06:41:00,63.2,60.2,29.97,SSE,158,1.6,4.0,90,0.00,,---,0.00,VWS V14.01,2013-04-02 11:41:00,
2013-04-02 06:42:00,63.2,60.2,29.97,SE,135,4.3,4.7,90,0.00,,---,0.00,VWS V14.01,2013-04-02 11:42:00,
2013-04-02 06:43:00,63.2,60.2,29.97,SE,135,4.3,4.3,90,0.00,,---,0.00,VWS V14.01,2013-04-02 11:43:00,
2013-04-02 06:44:00,63.2,60.2,29.97,WSW,248,3.4,4.3,90,0.00,,---,0.00,VWS V14.01,2013-04-02 11:44:00,
2013-04-02 06:45:00,63.2,60.2,29.97,East,90,3.4,3.4,90,0.00,,---,0.00,VWS V14.01,2013-04-02 11:45:00,
2013-04-02 06:46:00,63.2,60.2,30.00,SSE,158,2.5,3.4,90,0.00,,---,0.00,VWS V14.01,2013-04-02 11:46:00,
2013-04-02 06:47:00,63.2,60.2,30.00,SSE,158,5.8,5.8,90,0.00,,---,0.00,VWS V14.01,2013-04-02 11:47:00,
2013-04-02 06:48:00,63.3,60.4,30.00,ESE,112,3.4,5.8,90,0.00,,---,0.00,VWS V14.01,2013-04-02 11:48:00,
2013-04-02 06:49:00,63.2,60.2,30.00,SSE,158,4.3,4.3,90,0.00,,---,0.00,VWS V14.01,2013-04-02 11:49:00,
2013-04-02 06:50:00,63.3,60.4,30.00,East,90,7.4,8.7,90,0.00,,---,0.00,VWS V14.01,2013-04-02 11:50:00,
2013-04-02 06:51:00,63.2,60.2,30.00,SE,135,4.9,8.7,90,0.00,,---,0.00,VWS V14.01,2013-04-02 11:51:00,
2013-04-02 06:52:00,63.2,60.2,30.00,East,90,4.7,5.6,90,0.00,,---,0.00,VWS V14.01,2013-04-02 11:52:00,
2013-04-02 06:53:00,63.2,60.2,30.00,ESE,112,2.5,6.5,90,0.00,,---,0.00,VWS V14.01,2013-04-02 11:53:00,
2013-04-02 06:54:00,63.2,60.2,30.00,ESE,112,2.5,3.1,90,0.00,,---,0.00,VWS V14.01,2013-04-02 11:54:00,
2013-04-02 06:55:00,63.2,60.2,30.00,ESE,112,2.9,3.1,90,0.00,,---,0.00,VWS V14.01,2013-04-02 11:55:00,
2013-04-02 06:56:00,63.2,60.2,30.00,East,90,1.1,4.7,90,0.00,,---,0.00,VWS V14.01,2013-04-02 11:56:00,
2013-04-02 06:57:00,63.2,60.2,30.00,East,90,4.0,4.0,90,0.00,,---,0.00,VWS V14.01,2013-04-02 11:57:00,
2013-04-02 06:58:00,63.2,60.2,30.00,East,90,1.3,4.0,90,0.00,,---,0.00,VWS V14.01,2013-04-02 11:58:00,
2013-04-02 06:59:00,63.2,60.2,30.00,SSE,158,6.3,6.3,90,0.00,,---,0.00,VWS V14.01,2013-04-02 11:59:00,
2013-04-02 07:00:00,63.2,60.2,30.00,ESE,112,3.1,6.3,90,0.00,,---,0.00,VWS V14.01,2013-04-02 12:00:00,
2013-04-02 07:01:00,63.2,60.2,29.97,East,90,5.8,5.8,90,0.00,,---,0.00,VWS V14.01,2013-04-02 12:01:00,
2013-04-02 07:02:00,63.2,60.2,29.97,East,90,3.4,5.8,90,0.00,,---,0.00,VWS V14.01,2013-04-02 12:02:00,
2013-04-02 07:03:00,63.3,60.4,29.97,SE,135,3.8,3.8,90,0.00,,---,0.00,VWS V14.01,2013-04-02 12:03:00,
2013-04-02 07:04:00,63.3,60.4,29.97,SW,225,0.0,3.8,90,0.00,,---,0.00,VWS V14.01,2013-04-02 12:04:00,
2013-04-02 07:05:00,63.3,60.4,29.97,SSW,202,1.3,2.5,90,0.00,,---,0.00,VWS V14.01,2013-04-02 12:05:00,
2013-04-02 07:06:00,63.3,60.4,29.97,East,90,3.1,3.1,90,0.00,,---,0.00,VWS V14.01,2013-04-02 12:06:00,
2013-04-02 07:07:00,63.5,60.5,29.97,SSW,202,1.6,4.7,90,0.00,,---,0.00,VWS V14.01,2013-04-02 12:07:00,
2013-04-02 07:08:00,63.5,60.5,29.97,South,180,3.4,3.4,90,0.00,,---,0.00,VWS V14.01,2013-04-02 12:08:00,
2013-04-02 07:09:00,63.5,60.5,29.97,East,90,0.0,3.4,90,0.00,,---,0.00,VWS V14.01,2013-04-02 12:09:00,
2013-04-02 07:10:00,63.5,60.5,29.97,ESE,112,4.0,4.0,90,0.00,,---,0.00,VWS V14.01,2013-04-02 12:10:00,
2013-04-02 07:11:00,63.5,60.5,29.97,ESE,112,1.3,4.0,90,0.00,,---,0.00,VWS V14.01,2013-04-02 12:11:00,
2013-04-02 07:12:00,63.5,60.5,29.97,East,90,3.8,5.8,90,0.00,,---,0.00,VWS V14.01,2013-04-02 12:12:00,
2013-04-02 07:13:00,63.5,60.5,29.97,East,90,3.8,4.3,90,0.00,,---,0.00,VWS V14.01,2013-04-02 12:13:00,
2013-04-02 07:14:00,63.5,60.5,29.97,East,90,5.6,5.6,90,0.00,,---,0.00,VWS V14.01,2013-04-02 12:14:00,
2013-04-02 07:15:00,63.5,60.5,29.97,ESE,112,2.7,6.0,90,0.00,,---,0.00,VWS V14.01,2013-04-02 12:15:00,
2013-04-02 07:16:00,63.5,60.5,29.97,ESE,112,3.8,5.4,90,0.00,,---,0.00,VWS V14.01,2013-04-02 12:16:00,
2013-04-02 07:17:00,63.5,60.5,29.97,SE,135,3.1,4.3,90,0.00,,---,0.00,VWS V14.01,2013-04-02 12:17:00,
2013-04-02 07:18:00,63.5,60.5,29.97,East,90,4.9,4.9,90,0.00,,---,0.00,VWS V14.01,2013-04-02 12:18:00,
2013-04-02 07:19:00,63.5,60.5,29.97,ESE,112,3.8,6.7,90,0.00,,---,0.00,VWS V14.01,2013-04-02 12:19:00,
2013-04-02 07:20:00,63.3,60.4,29.97,ESE,112,7.6,7.8,90,0.00,,---,0.00,VWS V14.01,2013-04-02 12:20:00,
2013-04-02 07:21:00,63.3,60.4,29.97,SE,135,5.4,7.6,90,0.00,,---,0.00,VWS V14.01,2013-04-02 12:21:00,
2013-04-02 07:22:00,63.3,60.4,29.97,SE,135,2.9,5.4,90,0.00,,---,0.00,VWS V14.01,2013-04-02 12:22:00,
2013-04-02 07:23:00,63.3,60.4,29.97,SSE,158,3.6,4.3,90,0.00,,---,0.00,VWS V14.01,2013-04-02 12:23:00,
2013-04-02 07:24:00,63.3,60.7,29.97,SSW,202,6.3,6.3,91,0.00,,---,0.00,VWS V14.01,2013-04-02 12:24:00,
2013-04-02 07:25:00,63.3,60.7,29.97,ESE,112,1.6,6.3,91,0.00,,---,0.00,VWS V14.01,2013-04-02 12:25:00,
2013-04-02 07:26:00,63.3,60.7,29.97,East,90,3.1,4.5,91,0.00,,---,0.00,VWS V14.01,2013-04-02 12:26:00,
2013-04-02 07:27:00,63.3,60.7,29.97,SE,135,3.6,9.6,91,0.00,,---,0.00,VWS V14.01,2013-04-02 12:27:00,
2013-04-02 07:28:00,63.3,60.7,29.97,ESE,112,4.3,8.7,91,0.00,,---,0.00,VWS V14.01,2013-04-02 12:28:00,
2013-04-02 07:29:00,63.3,60.7,29.97,SSE,158,2.9,5.6,91,0.00,,---,0.00,VWS V14.01,2013-04-02 12:29:00,
2013-04-02 07:30:00,63.3,60.7,29.97,ESE,112,4.0,6.5,91,0.00,,---,0.00,VWS V14.01,2013-04-02 12:30:00,
2013-04-02 07:31:00,63.3,60.7,29.97,SSE,158,3.1,7.2,91,0.00,,---,0.00,VWS V14.01,2013-04-02 12:31:00,
2013-04-02 07:32:00,63.3,60.7,29.97,East,90,7.4,7.4,91,0.00,,---,0.00,VWS V14.01,2013-04-02 12:32:00,
2013-04-02 07:33:00,63.3,60.7,29.97,ESE,112,5.4,7.4,91,0.00,,---,0.00,VWS V14.01,2013-04-02 12:33:00,
2013-04-02 07:34:00,63.3,60.7,29.97,ESE,112,9.8,9.8,91,0.00,,---,0.00,VWS V14.01,2013-04-02 12:34:00,
2013-04-02 07:35:00,63.3,60.7,29.97,ESE,112,5.6,9.8,91,0.00,,---,0.00,VWS V14.01,2013-04-02 12:35:00,
2013-04-02 07:36:00,63.5,60.9,29.97,SE,135,2.7,5.8,91,0.00,,---,0.00,VWS V14.01,2013-04-02 12:36:00,
2013-04-02 07:37:00,63.7,60.7,29.97,SW,225,2.0,3.1,90,0.00,,---,0.00,VWS V14.01,2013-04-02 12:37:00,
2013-04-02 07:38:00,63.9,60.9,29.97,SE,135,3.6,4.9,90,0.00,,---,0.00,VWS V14.01,2013-04-02 12:38:00,
2013-04-02 07:39:00,63.9,60.9,29.97,South,180,0.9,3.6,90,0.00,,---,0.00,VWS V14.01,2013-04-02 12:39:00,
2013-04-02 07:40:00,64.1,61.1,29.97,SSE,158,4.3,6.3,90,0.00,,---,0.00,VWS V14.01,2013-04-02 12:40:00,
2013-04-02 07:41:00,64.1,61.1,29.97,ESE,112,2.5,4.3,90,0.00,,---,0.00,VWS V14.01,2013-04-02 12:41:00,
2013-04-02 07:42:00,64.2,61.2,29.97,East,90,0.9,2.9,90,0.00,,---,0.00,VWS V14.01,2013-04-02 12:42:00,
2013-04-02 07:43:00,64.2,61.2,29.97,South,180,1.6,3.4,90,0.00,,---,0.00,VWS V14.01,2013-04-02 12:43:00,
2013-04-02 07:44:00,64.2,60.9,29.97,South,180,2.2,3.1,89,0.00,,---,0.00,VWS V14.01,2013-04-02 12:44:00,
2013-04-02 07:45:00,64.2,60.9,29.97,ESE,112,0.0,2.5,89,0.00,,---,0.00,VWS V14.01,2013-04-02 12:45:00,
2013-04-02 07:46:00,64.2,60.9,30.00,SSE,158,2.9,2.9,89,0.00,,---,0.00,VWS V14.01,2013-04-02 12:46:00,
2013-04-02 07:47:00,64.2,60.9,30.00,ESE,112,2.5,2.9,89,0.00,,---,0.00,VWS V14.01,2013-04-02 12:47:00,
2013-04-02 07:48:00,64.2,60.9,30.00,SE,135,4.0,4.0,89,0.00,,---,0.00,VWS V14.01,2013-04-02 12:48:00,
2013-04-02 07:49:00,64.2,60.9,30.00,South,180,0.0,4.0,89,0.00,,---,0.00,VWS V14.01,2013-04-02 12:49:00,
2013-04-02 07:50:00,64.2,60.9,30.00,South,180,2.2,2.2,89,0.00,,---,0.00,VWS V14.01,2013-04-02 12:50:00,
2013-04-02 07:51:00,64.2,60.9,30.00,East,90,1.6,2.7,89,0.00,,---,0.00,VWS V14.01,2013-04-02 12:51:00,
2013-04-02 07:52:00,64.2,60.9,30.00,South,180,0.0,3.1,89,0.00,,---,0.00,VWS V14.01,2013-04-02 12:52:00,
2013-04-02 07:53:00,64.2,60.9,30.00,ESE,112,0.0,0.9,89,0.00,,---,0.00,VWS V14.01,2013-04-02 12:53:00,
2013-04-02 07:54:00,64.2,60.9,30.00,South,180,1.3,3.1,89,0.00,,---,0.00,VWS V14.01,2013-04-02 12:54:00,
2013-04-02 07:55:00,64.2,60.9,30.00,ESE,112,3.6,3.6,89,0.00,,---,0.00,VWS V14.01,2013-04-02 12:55:00,
2013-04-02 07:56:00,64.2,60.9,30.00,East,90,1.6,3.6,89,0.00,,---,0.00,VWS V14.01,2013-04-02 12:56:00,
2013-04-02 07:57:00,64.4,61.1,30.00,East,90,1.3,2.9,89,0.00,,---,0.00,VWS V14.01,2013-04-02 12:57:00,
2013-04-02 07:58:00,64.4,61.1,30.00,ESE,112,2.5,2.5,89,0.00,,---,0.00,VWS V14.01,2013-04-02 12:58:00,
2013-04-02 07:59:00,64.4,61.1,30.00,SE,135,1.6,4.3,89,0.00,,---,0.00,VWS V14.01,2013-04-02 12:59:00,
2013-04-02 08:00:00,64.4,61.1,30.00,East,90,2.5,3.6,89,0.00,,---,0.00,VWS V14.01,2013-04-02 13:00:00,
2013-04-02 08:01:00,64.4,61.1,29.97,ESE,112,2.9,3.8,89,0.00,,---,0.00,VWS V14.01,2013-04-02 13:01:00,
2013-04-02 08:02:00,64.4,61.1,29.97,South,180,2.2,4.3,89,0.00,,---,0.00,VWS V14.01,2013-04-02 13:02:00,
2013-04-02 08:03:00,64.6,61.0,29.97,East,90,3.8,4.9,88,0.00,,---,0.00,VWS V14.01,2013-04-02 13:03:00,
2013-04-02 08:04:00,64.6,61.0,29.97,SE,135,3.1,4.0,88,0.00,,---,0.00,VWS V14.01,2013-04-02 13:04:00,
2013-04-02 08:05:00,64.6,61.0,29.97,ESE,112,2.9,4.9,88,0.00,,---,0.00,VWS V14.01,2013-04-02 13:05:00,
2013-04-02 08:06:00,64.6,61.0,29.97,ESE,112,0.9,3.4,88,0.00,,---,0.00,VWS V14.01,2013-04-02 13:06:00,
2013-04-02 08:07:00,64.6,61.0,29.97,ESE,112,4.3,4.3,88,0.00,,---,0.00,VWS V14.01,2013-04-02 13:07:00,
2013-04-02 08:08:00,64.6,61.0,29.97,South,180,3.1,4.7,88,0.00,,---,0.00,VWS V14.01,2013-04-02 13:08:00,
2013-04-02 08:09:00,64.6,60.6,29.97,SSE,158,5.8,6.5,87,0.00,,---,0.00,VWS V14.01,2013-04-02 13:09:00,
2013-04-02 08:10:00,64.6,60.6,29.97,SE,135,4.0,5.8,87,0.00,,---,0.00,VWS V14.01,2013-04-02 13:10:00,
2013-04-02 08:11:00,64.6,60.6,29.97,East,90,2.5,5.8,87,0.00,,---,0.00,VWS V14.01,2013-04-02 13:11:00,
2013-04-02 08:12:00,64.8,60.8,29.97,ESE,112,1.3,2.7,87,0.00,,---,0.00,VWS V14.01,2013-04-02 13:12:00,
2013-04-02 08:13:00,64.8,60.8,29.97,ESE,112,2.5,6.0,87,0.00,,---,0.00,VWS V14.01,2013-04-02 13:13:00,
2013-04-02 08:14:00,64.6,60.6,29.97,ESE,112,6.3,6.3,87,0.00,,---,0.00,VWS V14.01,2013-04-02 13:14:00,
2013-04-02 08:15:00,64.6,60.6,29.97,SE,135,6.0,6.3,87,0.00,,---,0.00,VWS V14.01,2013-04-02 13:15:00,
2013-04-02 08:16:00,64.6,60.6,30.00,ESE,112,4.9,6.0,87,0.00,,---,0.00,VWS V14.01,2013-04-02 13:16:00,
2013-04-02 08:17:00,64.6,60.6,30.00,SE,135,2.5,4.9,87,0.00,,---,0.00,VWS V14.01,2013-04-02 13:17:00,
2013-04-02 08:18:00,64.6,60.6,30.00,South,180,4.0,4.0,87,0.00,,---,0.00,VWS V14.01,2013-04-02 13:18:00,
2013-04-02 08:19:00,64.6,60.6,30.00,SE,135,1.6,4.0,87,0.00,,---,0.00,VWS V14.01,2013-04-02 13:19:00,
2013-04-02 08:20:00,64.6,60.6,30.00,WSW,248,3.8,3.8,87,0.00,,---,0.00,VWS V14.01,2013-04-02 13:20:00,
2013-04-02 08:21:00,64.6,60.6,30.00,ESE,112,2.5,3.8,87,0.00,,---,0.00,VWS V14.01,2013-04-02 13:21:00,
2013-04-02 08:22:00,64.4,60.5,30.00,SE,135,4.0,4.0,87,0.00,,---,0.00,VWS V14.01,2013-04-02 13:22:00,
2013-04-02 08:23:00,64.4,60.5,30.00,SE,135,3.6,5.4,87,0.00,,---,0.00,VWS V14.01,2013-04-02 13:23:00,
2013-04-02 08:24:00,64.4,60.5,30.00,SE,135,2.7,3.6,87,0.00,,---,0.00,VWS V14.01,2013-04-02 13:24:00,
2013-04-02 08:25:00,64.4,60.5,30.00,SSW,202,0.0,2.9,87,0.00,,---,0.00,VWS V14.01,2013-04-02 13:25:00,
2013-04-02 08:26:00,64.4,60.5,30.00,South,180,0.0,0.9,87,0.00,,---,0.00,VWS V14.01,2013-04-02 13:26:00,
2013-04-02 08:27:00,64.4,60.5,30.00,South,180,0.0,1.1,87,0.00,,---,0.00,VWS V14.01,2013-04-02 13:27:00,
2013-04-02 08:28:00,64.4,60.5,30.00,SE,135,4.9,4.9,87,0.00,,---,0.00,VWS V14.01,2013-04-02 13:28:00,
2013-04-02 08:29:00,64.4,60.5,30.00,SE,135,2.5,4.9,87,0.00,,---,0.00,VWS V14.01,2013-04-02 13:29:00,
2013-04-02 08:30:00,64.4,60.5,30.00,East,90,2.0,3.1,87,0.00,,---,0.00,VWS V14.01,2013-04-02 13:30:00,
2013-04-02 08:31:00,64.4,60.5,30.00,SSE,158,2.0,2.9,87,0.00,,---,0.00,VWS V14.01,2013-04-02 13:31:00,
2013-04-02 08:32:00,64.4,60.5,30.00,South,180,2.7,3.8,87,0.00,,---,0.00,VWS V14.01,2013-04-02 13:32:00,
2013-04-02 08:33:00,64.4,60.5,30.00,ESE,112,3.6,3.6,87,0.00,,---,0.00,VWS V14.01,2013-04-02 13:33:00,
2013-04-02 08:34:00,64.4,60.5,30.00,SE,135,4.3,6.0,87,0.00,,---,0.00,VWS V14.01,2013-04-02 13:34:00,
2013-04-02 08:35:00,64.4,60.5,30.00,South,180,3.4,3.4,87,0.00,,---,0.00,VWS V14.01,2013-04-02 13:35:00,
2013-04-02 08:36:00,64.4,60.5,30.00,SE,135,2.5,3.4,87,0.00,,---,0.00,VWS V14.01,2013-04-02 13:36:00,
2013-04-02 08:37:00,64.4,60.5,30.00,South,180,3.1,3.1,87,0.00,,---,0.00,VWS V14.01,2013-04-02 13:37:00,
2013-04-02 08:38:00,64.4,60.5,30.00,NE,45,5.4,5.4,87,0.00,,---,0.00,VWS V14.01,2013-04-02 13:38:00,
2013-04-02 08:39:00,64.4,60.5,30.00,SE,135,4.3,5.4,87,0.00,,---,0.00,VWS V14.01,2013-04-02 13:39:00,
2013-04-02 08:40:00,64.4,60.5,30.00,SE,135,3.4,4.5,87,0.00,,---,0.00,VWS V14.01,2013-04-02 13:40:00,
2013-04-02 08:41:00,64.4,60.5,30.00,SE,135,2.5,3.6,87,0.00,,---,0.00,VWS V14.01,2013-04-02 13:41:00,
2013-04-02 08:42:00,64.4,60.5,30.00,ENE,68,3.6,6.0,87,0.00,,---,0.00,VWS V14.01,2013-04-02 13:42:00,
2013-04-02 08:43:00,64.4,60.5,30.00,East,90,3.8,4.9,87,0.00,,---,0.00,VWS V14.01,2013-04-02 13:43:00,
2013-04-02 08:44:00,64.4,60.5,30.00,SE,135,2.9,3.8,87,0.00,,---,0.00,VWS V14.01,2013-04-02 13:44:00,
2013-04-02 08:45:00,64.4,60.5,30.00,ESE,112,2.0,3.1,87,0.00,,---,0.00,VWS V14.01,2013-04-02 13:45:00,
2013-04-02 08:46:00,64.4,60.5,30.00,East,90,5.8,5.8,87,0.00,,---,0.00,VWS V14.01,2013-04-02 13:46:00,
2013-04-02 08:47:00,64.4,60.5,30.00,ESE,112,2.9,5.8,87,0.00,,---,0.00,VWS V14.01,2013-04-02 13:47:00,
2013-04-02 08:48:00,64.4,60.5,30.00,SE,135,2.0,5.6,87,0.00,,---,0.00,VWS V14.01,2013-04-02 13:48:00,
2013-04-02 08:49:00,64.6,60.6,30.00,ESE,112,3.6,3.6,87,0.00,,---,0.00,VWS V14.01,2013-04-02 13:49:00,
2013-04-02 08:50:00,64.6,60.6,30.00,SE,135,4.3,4.3,87,0.00,,---,0.00,VWS V14.01,2013-04-02 13:50:00,
2013-04-02 08:51:00,64.6,60.6,30.00,ESE,112,0.9,4.3,87,0.00,,---,0.00,VWS V14.01,2013-04-02 13:51:00,
2013-04-02 08:52:00,64.8,60.8,30.00,ESE,112,0.0,0.9,87,0.00,,---,0.00,VWS V14.01,2013-04-02 13:52:00,
2013-04-02 08:53:00,64.9,61.0,30.00,ESE,112,3.1,3.8,87,0.00,,---,0.00,VWS V14.01,2013-04-02 13:53:00,
2013-04-02 08:54:00,64.9,61.0,30.00,SE,135,3.4,4.3,87,0.00,,---,0.00,VWS V14.01,2013-04-02 13:54:00,
2013-04-02 08:55:00,64.9,61.0,30.00,SE,135,1.3,3.4,87,0.00,,---,0.00,VWS V14.01,2013-04-02 13:55:00,
2013-04-02 08:56:00,65.1,61.2,30.00,East,90,2.9,3.4,87,0.00,,---,0.00,VWS V14.01,2013-04-02 13:56:00,
2013-04-02 08:57:00,65.1,61.2,30.00,ENE,68,2.7,4.9,87,0.00,,---,0.00,VWS V14.01,2013-04-02 13:57:00,
2013-04-02 08:58:00,65.1,61.2,30.00,East,90,1.3,4.0,87,0.00,,---,0.00,VWS V14.01,2013-04-02 13:58:00,
2013-04-02 08:59:00,65.1,61.2,30.00,East,90,3.8,3.8,87,0.00,,---,0.00,VWS V14.01,2013-04-02 13:59:00,
2013-04-02 09:00:00,65.1,61.2,30.00,East,90,2.9,3.8,87,0.00,,---,0.04,VWS V14.01,2013-04-02 14:00:00,
2013-04-02 09:01:00,65.1,61.2,30.03,ENE,68,2.0,3.4,87,0.00,,---,0.00,VWS V14.01,2013-04-02 14:01:00,
2013-04-02 09:02:00,65.1,61.2,30.03,East,90,2.2,4.0,87,0.00,,---,0.00,VWS V14.01,2013-04-02 14:02:00,
2013-04-02 09:03:00,65.3,61.3,30.03,SSE,158,2.7,3.6,87,0.00,,---,0.00,VWS V14.01,2013-04-02 14:03:00,
2013-04-02 09:04:00,65.3,61.3,30.03,ENE,68,2.9,2.9,87,0.00,,---,0.00,VWS V14.01,2013-04-02 14:04:00,
2013-04-02 09:05:00,65.3,61.3,30.03,NNW,338,2.5,4.0,87,0.00,,---,0.00,VWS V14.01,2013-04-02 14:05:00,
2013-04-02 09:06:00,65.3,61.3,30.03,East,90,2.2,3.6,87,0.00,,---,0.00,VWS V14.01,2013-04-02 14:06:00,
2013-04-02 09:07:00,65.3,61.3,30.03,East,90,0.0,2.2,87,0.00,,---,0.00,VWS V14.01,2013-04-02 14:07:00,
2013-04-02 09:08:00,65.3,61.3,30.03,SE,135,2.9,2.9,87,0.00,,---,0.00,VWS V14.01,2013-04-02 14:08:00,
2013-04-02 09:09:00,65.3,61.3,30.03,ESE,112,0.0,3.6,87,0.00,,---,0.00,VWS V14.01,2013-04-02 14:09:00,
2013-04-02 09:10:00,65.1,61.2,30.03,SE,135,3.1,3.1,87,0.00,,---,0.00,VWS V14.01,2013-04-02 14:10:00,
2013-04-02 09:11:00,65.1,61.2,30.03,East,90,1.6,3.1,87,0.00,,---,0.00,VWS V14.01,2013-04-02 14:11:00,
2013-04-02 09:12:00,65.1,61.2,30.03,ESE,112,3.1,3.1,87,0.00,,---,0.00,VWS V14.01,2013-04-02 14:12:00,
2013-04-02 09:13:00,65.1,61.2,30.03,East,90,2.0,3.1,87,0.00,,---,0.00,VWS V14.01,2013-04-02 14:13:00,
2013-04-02 09:14:00,64.9,61.0,30.03,NNE,22,2.9,3.6,87,0.00,,---,0.00,VWS V14.01,2013-04-02 14:14:00,
2013-04-02 09:15:00,64.9,61.0,30.03,NNE,22,2.9,4.0,87,0.00,,---,0.00,VWS V14.01,2013-04-02 14:15:00,
2013-04-02 09:16:00,64.8,60.8,30.00,North,0,2.0,3.8,87,0.00,,---,0.00,VWS V14.01,2013-04-02 14:16:00,
2013-04-02 09:17:00,64.8,60.8,30.00,NE,45,0.0,2.0,87,0.00,,---,0.00,VWS V14.01,2013-04-02 14:17:00,
2013-04-02 09:18:00,64.8,60.8,30.00,East,90,1.1,3.4,87,0.00,,---,0.00,VWS V14.01,2013-04-02 14:18:00,
2013-04-02 09:19:00,64.8,60.8,30.00,NNE,22,1.6,3.1,87,0.00,,---,0.00,VWS V14.01,2013-04-02 14:19:00,
2013-04-02 09:20:00,64.8,60.8,30.00,North,0,2.2,2.2,87,0.00,,---,0.00,VWS V14.01,2013-04-02 14:20:00,
2013-04-02 09:21:00,64.8,60.8,30.00,SE,135,1.3,2.2,87,0.00,,---,0.00,VWS V14.01,2013-04-02 14:21:00,
2013-04-02 09:22:00,64.8,60.8,30.00,SE,135,0.0,2.0,87,0.00,,---,0.00,VWS V14.01,2013-04-02 14:22:00,
2013-04-02 09:23:00,64.8,60.8,30.00,ENE,68,3.6,3.6,87,0.00,,---,0.00,VWS V14.01,2013-04-02 14:23:00,
2013-04-02 09:24:00,64.8,61.1,30.00,ENE,68,1.3,3.6,88,0.00,,---,0.00,VWS V14.01,2013-04-02 14:24:00,
2013-04-02 09:25:00,64.8,61.1,30.00,East,90,2.9,3.4,88,0.00,,---,0.00,VWS V14.01,2013-04-02 14:25:00,
2013-04-02 09:26:00,64.8,61.1,30.00,East,90,2.5,3.4,88,0.00,,---,0.00,VWS V14.01,2013-04-02 14:26:00,
2013-04-02 09:27:00,64.6,61.0,30.00,East,90,2.7,3.6,88,0.00,,---,0.00,VWS V14.01,2013-04-02 14:27:00,
2013-04-02 09:28:00,64.6,61.0,30.00,East,90,0.0,2.9,88,0.00,,---,0.00,VWS V14.01,2013-04-02 14:28:00,
2013-04-02 09:29:00,64.6,61.0,30.00,NE,45,0.0,2.5,88,0.00,,---,0.00,VWS V14.01,2013-04-02 14:29:00,
2013-04-02 09:30:00,64.8,61.1,30.00,East,90,0.0,0.0,88,0.00,,---,0.00,VWS V14.01,2013-04-02 14:30:00,
2013-04-02 09:31:00,64.8,61.1,30.00,ESE,112,2.5,2.5,88,0.00,,---,0.00,VWS V14.01,2013-04-02 14:31:00,
2013-04-02 09:32:00,64.8,61.1,30.00,East,90,2.0,3.1,88,0.00,,---,0.00,VWS V14.01,2013-04-02 14:32:00,
2013-04-02 09:33:00,64.8,61.1,30.00,NE,45,2.0,3.8,88,0.00,,---,0.00,VWS V14.01,2013-04-02 14:33:00,
2013-04-02 09:34:00,64.8,61.1,30.00,East,90,1.6,2.0,88,0.00,,---,0.00,VWS V14.01,2013-04-02 14:34:00,
2013-04-02 09:35:00,64.9,61.3,30.00,NNE,22,0.0,1.6,88,0.00,,---,0.00,VWS V14.01,2013-04-02 14:35:00,
2013-04-02 09:36:00,64.9,61.3,30.00,NNE,22,0.0,0.0,88,0.00,,---,0.00,VWS V14.01,2013-04-02 14:36:00,
2013-04-02 09:37:00,64.9,61.3,30.00,NNE,22,3.6,3.6,88,0.00,,---,0.00,VWS V14.01,2013-04-02 14:37:00,
2013-04-02 09:38:00,64.9,61.3,30.00,East,90,3.4,4.0,88,0.00,,---,0.00,VWS V14.01,2013-04-02 14:38:00,
2013-04-02 09:39:00,64.9,61.3,30.00,NE,45,1.1,3.4,88,0.00,,---,0.00,VWS V14.01,2013-04-02 14:39:00,
2013-04-02 09:40:00,64.9,61.3,30.00,NNE,22,0.0,1.1,88,0.00,,---,0.00,VWS V14.01,2013-04-02 14:40:00,
2013-04-02 09:41:00,65.1,61.5,30.00,NNE,22,0.0,1.1,88,0.00,,---,0.00,VWS V14.01,2013-04-02 14:41:00,
2013-04-02 09:42:00,65.1,61.5,30.00,SE,135,0.0,0.9,88,0.00,,---,0.00,VWS V14.01,2013-04-02 14:42:00,
2013-04-02 09:43:00,65.1,61.5,30.00,East,90,3.4,4.0,88,0.00,,---,0.00,VWS V14.01,2013-04-02 14:43:00,
2013-04-02 09:44:00,65.1,61.5,30.00,East,90,2.5,5.6,88,0.00,,---,0.00,VWS V14.01,2013-04-02 14:44:00,
2013-04-02 09:45:00,65.3,61.7,30.00,ESE,112,3.6,4.0,88,0.00,,---,0.00,VWS V14.01,2013-04-02 14:45:00,
2013-04-02 09:46:00,65.5,61.8,30.00,ESE,112,2.7,3.6,88,0.00,,---,0.00,VWS V14.01,2013-04-02 14:46:00,
2013-04-02 09:47:00,65.7,62.0,30.00,East,90,3.4,4.9,88,0.00,,---,0.00,VWS V14.01,2013-04-02 14:47:00,
2013-04-02 09:48:00,65.8,62.2,30.00,ESE,112,1.3,3.4,88,0.00,,---,0.00,VWS V14.01,2013-04-02 14:48:00,
2013-04-02 09:49:00,66.0,62.4,30.00,East,90,3.6,3.6,88,0.00,,---,0.00,VWS V14.01,2013-04-02 14:49:00,
2013-04-02 09:50:00,66.2,62.5,30.00,ENE,68,1.3,3.6,88,0.00,,---,0.00,VWS V14.01,2013-04-02 14:50:00,
2013-04-02 09:51:00,66.4,62.7,30.00,East,90,2.0,2.0,88,0.00,,---,0.00,VWS V14.01,2013-04-02 14:51:00,
2013-04-02 09:52:00,66.5,62.9,30.00,ESE,112,1.3,2.0,88,0.00,,---,0.00,VWS V14.01,2013-04-02 14:52:00,
2013-04-02 09:53:00,66.5,62.9,30.00,SE,135,2.5,3.6,88,0.00,,---,0.00,VWS V14.01,2013-04-02 14:53:00,
2013-04-02 09:54:00,66.5,62.6,30.00,ENE,68,2.7,3.6,87,0.00,,---,0.00,VWS V14.01,2013-04-02 14:54:00,
2013-04-02 09:55:00,66.4,62.1,30.00,East,90,4.9,4.9,86,0.00,,---,0.00,VWS V14.01,2013-04-02 14:55:00,
2013-04-02 09:56:00,66.4,62.1,30.00,ESE,112,1.6,4.9,86,0.00,,---,0.00,VWS V14.01,2013-04-02 14:56:00,
2013-04-02 09:57:00,66.2,61.9,30.00,East,90,3.6,5.6,86,0.00,,---,0.00,VWS V14.01,2013-04-02 14:57:00,
2013-04-02 09:58:00,66.0,61.7,30.00,ESE,112,2.7,4.9,86,0.00,,---,0.00,VWS V14.01,2013-04-02 14:58:00,
2013-04-02 09:59:00,65.8,61.5,30.00,East,90,3.4,3.4,86,0.00,,---,0.00,VWS V14.01,2013-04-02 14:59:00,
2013-04-02 10:00:00,65.8,61.5,30.00,ENE,68,3.6,3.6,86,0.00,,---,0.00,VWS V14.01,2013-04-02 15:00:00,
2013-04-02 10:01:00,65.5,61.2,30.00,East,90,1.1,3.6,86,0.00,,---,0.00,VWS V14.01,2013-04-02 15:01:00,
2013-04-02 10:02:00,65.5,61.5,30.00,East,90,0.9,2.0,87,0.00,,---,0.00,VWS V14.01,2013-04-02 15:02:00,
2013-04-02 10:03:00,65.5,61.5,30.00,South,180,1.1,3.1,87,0.00,,---,0.00,VWS V14.01,2013-04-02 15:03:00,
2013-04-02 10:04:00,65.3,61.3,30.00,NE,45,3.4,3.4,87,0.00,,---,0.00,VWS V14.01,2013-04-02 15:04:00,
2013-04-02 10:05:00,65.1,61.5,30.00,NE,45,3.4,5.8,88,0.00,,---,0.00,VWS V14.01,2013-04-02 15:05:00,
2013-04-02 10:06:00,65.1,61.5,30.00,East,90,6.5,6.5,88,0.00,,---,0.00,VWS V14.01,2013-04-02 15:06:00,
2013-04-02 10:07:00,64.9,61.3,30.00,ENE,68,3.4,6.5,88,0.00,,---,0.00,VWS V14.01,2013-04-02 15:07:00,
2013-04-02 10:08:00,64.9,61.3,30.00,ENE,68,5.4,5.4,88,0.00,,---,0.00,VWS V14.01,2013-04-02 15:08:00,
2013-04-02 10:09:00,64.8,61.1,30.00,East,90,2.7,5.4,88,0.00,,---,0.00,VWS V14.01,2013-04-02 15:09:00,
2013-04-02 10:10:00,64.8,61.1,30.00,ESE,112,3.6,5.8,88,0.00,,---,0.00,VWS V14.01,2013-04-02 15:10:00,
2013-04-02 10:11:00,64.8,61.5,30.00,East,90,3.1,3.6,89,0.00,,---,0.00,VWS V14.01,2013-04-02 15:11:00,
2013-04-02 10:12:00,64.6,61.3,30.00,NE,45,2.0,3.1,89,0.00,,---,0.00,VWS V14.01,2013-04-02 15:12:00,
2013-04-02 10:13:00,64.6,61.3,30.00,ENE,68,1.1,2.7,89,0.00,,---,0.00,VWS V14.01,2013-04-02 15:13:00,
2013-04-02 10:14:00,64.8,61.5,30.00,NE,45,3.6,3.6,89,0.00,,---,0.00,VWS V14.01,2013-04-02 15:14:00,
2013-04-02 10:15:00,64.8,61.5,30.00,East,90,1.6,4.7,89,0.00,,---,0.00,VWS V14.01,2013-04-02 15:15:00,
2013-04-02 10:16:00,64.8,61.5,30.00,NE,45,1.6,2.0,89,0.00,,---,0.00,VWS V14.01,2013-04-02 15:16:00,
2013-04-02 10:17:00,64.8,61.5,30.03,ENE,68,1.3,2.9,89,0.00,,---,0.00,VWS V14.01,2013-04-02 15:17:00,
2013-04-02 10:18:00,64.8,61.8,30.03,NW,315,3.4,3.4,90,0.00,,---,0.00,VWS V14.01,2013-04-02 15:18:00,
2013-04-02 10:19:00,64.8,61.8,30.03,NE,45,2.9,3.4,90,0.00,,---,0.00,VWS V14.01,2013-04-02 15:19:00,
2013-04-02 10:20:00,64.8,61.8,30.03,North,0,1.6,2.9,90,0.00,,---,0.00,VWS V14.01,2013-04-02 15:20:00,
2013-04-02 10:21:00,64.8,61.8,30.03,NNW,338,0.0,1.6,90,0.00,,---,0.00,VWS V14.01,2013-04-02 15:21:00,
2013-04-02 10:22:00,64.9,62.0,30.03,WSW,248,0.0,0.0,90,0.00,,---,0.00,VWS V14.01,2013-04-02 15:22:00,
2013-04-02 10:23:00,64.9,62.0,30.03,East,90,1.1,1.1,90,0.00,,---,0.00,VWS V14.01,2013-04-02 15:23:00,
2013-04-02 10:24:00,65.1,62.1,30.03,North,0,2.0,2.5,90,0.00,,---,0.00,VWS V14.01,2013-04-02 15:24:00,
2013-04-02 10:25:00,65.1,62.1,30.03,North,0,2.5,2.5,90,0.00,,---,0.00,VWS V14.01,2013-04-02 15:25:00,
2013-04-02 10:26:00,65.1,62.1,30.03,ENE,68,1.3,4.0,90,0.00,,---,0.00,VWS V14.01,2013-04-02 15:26:00,
2013-04-02 10:27:00,65.1,62.1,30.03,ENE,68,5.8,5.8,90,0.00,,---,0.00,VWS V14.01,2013-04-02 15:27:00,
2013-04-02 10:28:00,65.1,62.1,30.03,ENE,68,2.0,5.8,90,0.00,,---,0.00,VWS V14.01,2013-04-02 15:28:00,
2013-04-02 10:29:00,65.3,62.3,30.03,East,90,0.0,2.9,90,0.00,,---,0.00,VWS V14.01,2013-04-02 15:29:00,
2013-04-02 10:30:00,65.5,62.5,30.03,ENE,68,1.6,3.1,90,0.00,,---,0.00,VWS V14.01,2013-04-02 15:30:00,
2013-04-02 10:31:00,65.5,62.5,30.03,ENE,68,0.9,3.1,90,0.00,,---,0.00,VWS V14.01,2013-04-02 15:31:00,
2013-04-02 10:32:00,65.8,62.8,29.97,South,180,0.0,0.9,90,0.00,,---,0.00,VWS V14.01,2013-04-02 15:32:00,
2013-04-02 10:33:00,66.0,63.0,29.97,East,90,1.3,1.3,90,0.00,,---,0.00,VWS V14.01,2013-04-02 15:33:00,
2013-04-02 10:34:00,66.2,63.2,29.97,East,90,0.9,3.1,90,0.00,,---,0.00,VWS V14.01,2013-04-02 15:34:00,
2013-04-02 10:35:00,66.4,63.3,29.97,East,90,1.3,1.6,90,0.00,,---,0.00,VWS V14.01,2013-04-02 15:35:00,
2013-04-02 10:36:00,66.5,63.5,29.97,ENE,68,4.9,4.9,90,0.00,,---,0.00,VWS V14.01,2013-04-02 15:36:00,
2013-04-02 10:37:00,66.4,63.0,29.97,East,90,2.9,4.9,89,0.00,,---,0.00,VWS V14.01,2013-04-02 15:37:00,
2013-04-02 10:38:00,66.4,63.0,29.97,East,90,6.5,6.5,89,0.00,,---,0.00,VWS V14.01,2013-04-02 15:38:00,
2013-04-02 10:39:00,66.4,62.7,29.97,ENE,68,4.7,6.5,88,0.00,,---,0.00,VWS V14.01,2013-04-02 15:39:00,
2013-04-02 10:40:00,66.4,62.7,29.97,East,90,4.0,4.7,88,0.00,,---,0.00,VWS V14.01,2013-04-02 15:40:00,
2013-04-02 10:41:00,66.2,62.5,29.97,East,90,3.8,4.9,88,0.00,,---,0.00,VWS V14.01,2013-04-02 15:41:00,
2013-04-02 10:42:00,66.4,62.7,29.97,East,90,7.6,7.6,88,0.00,,---,0.00,VWS V14.01,2013-04-02 15:42:00,
2013-04-02 10:43:00,66.4,62.7,29.97,East,90,3.4,7.6,88,0.00,,---,0.00,VWS V14.01,2013-04-02 15:43:00,
2013-04-02 10:44:00,66.4,62.7,29.97,East,90,4.0,6.3,88,0.00,,---,0.00,VWS V14.01,2013-04-02 15:44:00,
2013-04-02 10:45:00,66.2,62.5,29.97,ESE,112,3.1,7.8,88,0.00,,---,0.00,VWS V14.01,2013-04-02 15:45:00,
2013-04-02 10:46:00,66.2,62.5,29.97,East,90,2.7,3.6,88,0.00,,---,0.00,VWS V14.01,2013-04-02 15:46:00,
2013-04-02 10:47:00,66.4,62.7,30.00,ESE,112,2.2,6.0,88,0.00,,---,0.00,VWS V14.01,2013-04-02 15:47:00,
2013-04-02 10:48:00,66.4,62.7,30.00,East,90,3.8,6.0,88,0.00,,---,0.00,VWS V14.01,2013-04-02 15:48:00,
2013-04-02 10:49:00,66.4,62.7,30.00,ESE,112,2.5,4.3,88,0.00,,---,0.00,VWS V14.01,2013-04-02 15:49:00,
2013-04-02 10:50:00,66.4,62.7,30.00,East,90,0.0,0.0,88,0.00,,---,0.00,VWS V14.01,2013-04-02 15:50:00,
2013-04-02 10:51:00,66.5,62.9,30.00,South,180,4.3,4.3,88,0.00,,---,0.00,VWS V14.01,2013-04-02 15:51:00,
2013-04-02 10:52:00,66.5,62.9,30.00,SE,135,2.9,4.3,88,0.00,,---,0.00,VWS V14.01,2013-04-02 15:52:00,
2013-04-02 10:53:00,66.5,62.9,30.00,ENE,68,4.0,4.3,88,0.00,,---,0.00,VWS V14.01,2013-04-02 15:53:00,
2013-04-02 10:54:00,66.5,62.6,30.00,East,90,3.4,5.6,87,0.00,,---,0.00,VWS V14.01,2013-04-02 15:54:00,
2013-04-02 10:55:00,66.5,62.6,30.00,ESE,112,2.9,4.0,87,0.00,,---,0.00,VWS V14.01,2013-04-02 15:55:00,
2013-04-02 10:56:00,66.7,62.7,30.00,East,90,3.8,4.0,87,0.00,,---,0.00,VWS V14.01,2013-04-02 15:56:00,
2013-04-02 10:57:00,66.7,62.7,30.00,North,0,1.6,1.6,87,0.00,,---,0.00,VWS V14.01,2013-04-02 15:57:00,
2013-04-02 10:58:00,66.9,62.9,30.00,NE,45,2.0,2.9,87,0.00,,---,0.00,VWS V14.01,2013-04-02 15:58:00,
2013-04-02 10:59:00,66.9,62.9,30.00,East,90,4.3,4.9,87,0.00,,---,0.00,VWS V14.01,2013-04-02 15:59:00,
2013-04-02 11:00:00,66.9,62.9,30.00,ESE,112,2.7,4.5,87,0.00,,---,0.00,VWS V14.01,2013-04-02 16:00:00,
2013-04-02 11:01:00,67.1,63.1,30.00,East,90,3.8,4.0,87,0.00,,---,0.00,VWS V14.01,2013-04-02 16:01:00,
2013-04-02 11:02:00,67.4,63.4,30.00,East,90,1.6,3.8,87,0.00,,---,0.00,VWS V14.01,2013-04-02 16:02:00,
2013-04-02 11:03:00,67.4,63.4,30.00,ENE,68,3.8,3.8,87,0.00,,---,0.00,VWS V14.01,2013-04-02 16:03:00,
2013-04-02 11:04:00,67.6,63.3,30.00,NNE,22,5.4,5.4,86,0.00,,---,0.00,VWS V14.01,2013-04-02 16:04:00,
2013-04-02 11:05:00,67.8,63.5,30.00,ENE,68,2.9,5.4,86,0.00,,---,0.00,VWS V14.01,2013-04-02 16:05:00,
2013-04-02 11:06:00,67.8,63.5,30.00,NE,45,1.1,3.1,86,0.00,,---,0.00,VWS V14.01,2013-04-02 16:06:00,
2013-04-02 11:07:00,68.1,63.8,30.00,East,90,3.8,3.8,86,0.00,,---,0.00,VWS V14.01,2013-04-02 16:07:00,
2013-04-02 11:08:00,68.3,64.0,30.00,East,90,2.7,3.8,86,0.00,,---,0.00,VWS V14.01,2013-04-02 16:08:00,
2013-04-02 11:09:00,68.5,63.8,30.00,East,90,2.7,3.8,85,0.00,,---,0.00,VWS V14.01,2013-04-02 16:09:00,
2013-04-02 11:10:00,68.7,64.0,30.00,East,90,2.9,2.9,85,0.00,,---,0.00,VWS V14.01,2013-04-02 16:10:00,
2013-04-02 11:11:00,68.8,64.2,30.00,NE,45,2.7,3.8,85,0.00,,---,0.00,VWS V14.01,2013-04-02 16:11:00,
2013-04-02 11:12:00,69.0,64.0,30.00,NW,315,2.5,2.7,84,0.00,,---,0.00,VWS V14.01,2013-04-02 16:12:00,
2013-04-02 11:13:00,69.2,64.2,30.00,NNE,22,5.6,5.6,84,0.00,,---,0.00,VWS V14.01,2013-04-02 16:13:00,
2013-04-02 11:14:00,69.2,63.8,30.00,ENE,68,4.0,5.6,83,0.00,,---,0.00,VWS V14.01,2013-04-02 16:14:00,
2013-04-02 11:15:00,69.2,63.8,30.00,ENE,68,3.8,4.9,83,0.00,,---,0.00,VWS V14.01,2013-04-02 16:15:00,
2013-04-02 11:16:00,69.4,63.7,30.00,NE,45,0.0,3.8,82,0.00,,---,0.00,VWS V14.01,2013-04-02 16:16:00,
2013-04-02 11:17:00,69.9,63.8,30.00,NE,45,4.3,4.3,81,0.00,,---,0.00,VWS V14.01,2013-04-02 16:17:00,
2013-04-02 11:18:00,70.1,64.0,30.00,NNE,22,2.5,4.7,81,0.00,,---,0.00,VWS V14.01,2013-04-02 16:18:00,
2013-04-02 11:19:00,70.3,64.2,30.00,SE,135,1.3,3.1,81,0.00,,---,0.00,VWS V14.01,2013-04-02 16:19:00,
2013-04-02 11:20:00,70.6,64.5,30.00,North,0,0.0,2.5,81,0.00,,---,0.00,VWS V14.01,2013-04-02 16:20:00,
2013-04-02 11:21:00,70.8,64.7,30.00,NNW,338,1.6,1.6,81,0.00,,---,0.00,VWS V14.01,2013-04-02 16:21:00,
2013-04-02 11:22:00,70.8,64.7,30.00,ENE,68,3.4,3.8,81,0.00,,---,0.00,VWS V14.01,2013-04-02 16:22:00,
2013-04-02 11:23:00,71.0,64.5,30.00,NNW,338,3.6,4.7,80,0.00,,---,0.00,VWS V14.01,2013-04-02 16:23:00,
2013-04-02 11:24:00,71.2,64.0,30.00,ENE,68,5.4,6.3,78,0.00,,---,0.00,VWS V14.01,2013-04-02 16:24:00,
2013-04-02 11:25:00,71.3,64.1,30.00,NE,45,3.6,5.4,78,0.00,,---,0.00,VWS V14.01,2013-04-02 16:25:00,
2013-04-02 11:26:00,71.5,64.3,30.00,ENE,68,1.6,3.6,78,0.00,,---,0.00,VWS V14.01,2013-04-02 16:26:00,
2013-04-02 11:27:00,71.7,64.5,30.00,East,90,2.7,4.9,78,0.00,,---,0.00,VWS V14.01,2013-04-02 16:27:00,
2013-04-02 11:28:00,71.9,64.3,30.00,NNE,22,7.2,7.2,77,0.00,,---,0.00,VWS V14.01,2013-04-02 16:28:00,
2013-04-02 11:29:00,72.6,64.2,30.00,NNE,22,3.4,7.2,75,0.00,,---,0.00,VWS V14.01,2013-04-02 16:29:00,
2013-04-02 11:30:00,73.1,64.7,30.00,NE,45,6.5,6.5,75,0.00,,---,0.00,VWS V14.01,2013-04-02 16:30:00,
2013-04-02 11:31:00,72.9,63.8,30.00,North,0,5.4,6.5,73,0.00,,---,0.00,VWS V14.01,2013-04-02 16:31:00,
2013-04-02 11:32:00,72.9,63.0,29.97,NE,45,7.2,7.2,71,0.00,,---,0.00,VWS V14.01,2013-04-02 16:32:00,
2013-04-02 11:33:00,73.6,63.3,29.97,North,0,4.9,7.2,70,0.00,,---,0.00,VWS V14.01,2013-04-02 16:33:00,
2013-04-02 11:34:00,74.0,63.6,29.97,NNE,22,6.5,6.5,70,0.00,,---,0.00,VWS V14.01,2013-04-02 16:34:00,
2013-04-02 11:35:00,74.0,63.6,29.97,North,0,4.3,6.5,70,0.00,,---,0.00,VWS V14.01,2013-04-02 16:35:00,
2013-04-02 11:36:00,74.5,63.7,29.97,SE,135,2.9,4.7,69,0.00,,---,0.00,VWS V14.01,2013-04-02 16:36:00,
2013-04-02 11:37:00,74.7,63.9,29.97,East,90,6.5,6.5,69,0.00,,---,0.00,VWS V14.01,2013-04-02 16:37:00,
2013-04-02 11:38:00,75.4,64.9,29.97,NE,45,2.0,6.5,70,0.00,,---,0.00,VWS V14.01,2013-04-02 16:38:00,
2013-04-02 11:39:00,76.3,65.4,29.97,SSE,158,0.0,2.9,69,0.00,,---,0.00,VWS V14.01,2013-04-02 16:39:00,
2013-04-02 11:40:00,76.7,65.7,29.97,SSE,158,2.0,2.7,69,0.00,,---,0.00,VWS V14.01,2013-04-02 16:40:00,
2013-04-02 11:41:00,76.7,64.0,29.97,ESE,112,7.4,9.8,65,0.00,,---,0.00,VWS V14.01,2013-04-02 16:41:00,
2013-04-02 11:42:00,77.2,64.1,29.97,SSE,158,6.0,7.4,64,0.00,,---,0.00,VWS V14.01,2013-04-02 16:42:00,
2013-04-02 11:43:00,77.4,64.2,29.97,SE,135,5.4,6.0,64,0.00,,---,0.00,VWS V14.01,2013-04-02 16:43:00,
2013-04-02 11:44:00,77.0,62.5,29.97,SE,135,7.4,9.8,61,0.00,,---,0.00,VWS V14.01,2013-04-02 16:44:00,
2013-04-02 11:45:00,77.5,63.5,29.97,South,180,4.9,7.4,62,0.00,,---,0.00,VWS V14.01,2013-04-02 16:45:00,
2013-04-02 11:46:00,77.4,63.3,29.97,SSE,158,5.6,5.6,62,0.00,,---,0.00,VWS V14.01,2013-04-02 16:46:00,
2013-04-02 11:47:00,77.4,63.8,29.97,SW,225,1.6,5.6,63,0.00,,---,0.00,VWS V14.01,2013-04-02 16:47:00,
2013-04-02 11:48:00,77.4,62.9,29.97,SE,135,5.8,5.8,61,0.00,,---,0.00,VWS V14.01,2013-04-02 16:48:00,
2013-04-02 11:49:00,77.0,62.1,29.97,East,90,2.9,7.2,60,0.00,,---,0.00,VWS V14.01,2013-04-02 16:49:00,
2013-04-02 11:50:00,76.8,61.9,29.97,SE,135,3.1,4.3,60,0.00,,---,0.00,VWS V14.01,2013-04-02 16:50:00,
2013-04-02 11:51:00,76.7,62.2,29.97,SE,135,2.7,3.6,61,0.00,,---,0.00,VWS V14.01,2013-04-02 16:51:00,
2013-04-02 11:52:00,76.3,61.4,29.97,SE,135,6.5,7.8,60,0.00,,---,0.00,VWS V14.01,2013-04-02 16:52:00,
2013-04-02 11:53:00,76.3,61.4,29.97,South,180,2.5,6.5,60,0.00,,---,0.00,VWS V14.01,2013-04-02 16:53:00,
2013-04-02 11:54:00,77.0,62.5,29.97,ESE,112,5.4,5.4,61,0.00,,---,0.00,VWS V14.01,2013-04-02 16:54:00,
2013-04-02 11:55:00,76.7,61.7,29.97,SE,135,5.8,6.9,60,0.00,,---,0.00,VWS V14.01,2013-04-02 16:55:00,
2013-04-02 11:56:00,76.3,60.9,29.97,East,90,5.8,6.0,59,0.00,,---,0.00,VWS V14.01,2013-04-02 16:56:00,
2013-04-02 11:57:00,76.1,60.8,29.97,SE,135,4.0,7.8,59,0.00,,---,0.00,VWS V14.01,2013-04-02 16:57:00,
2013-04-02 11:58:00,75.8,60.9,29.97,ESE,112,4.9,7.2,60,0.00,,---,0.00,VWS V14.01,2013-04-02 16:58:00,
2013-04-02 11:59:00,75.8,60.9,29.97,SSW,202,2.5,9.8,60,0.00,,---,0.00,VWS V14.01,2013-04-02 16:59:00,
2013-04-02 12:00:00,75.1,60.2,29.97,ESE,112,6.5,7.8,60,0.00,,---,0.00,VWS V14.01,2013-04-02 17:00:00,
2013-04-02 12:01:00,74.9,59.6,29.97,South,180,5.8,9.6,59,0.00,,---,0.00,VWS V14.01,2013-04-02 17:01:00,
2013-04-02 12:02:00,74.7,60.4,29.97,South,180,5.4,5.4,61,0.00,,---,0.00,VWS V14.01,2013-04-02 17:02:00,
2013-04-02 12:03:00,74.5,60.2,29.97,SE,135,6.9,6.9,61,0.00,,---,0.00,VWS V14.01,2013-04-02 17:03:00,
2013-04-02 12:04:00,74.3,60.0,29.97,SE,135,3.4,6.9,61,0.00,,---,0.00,VWS V14.01,2013-04-02 17:04:00,
2013-04-02 12:05:00,74.3,60.0,29.97,ESE,112,4.0,5.6,61,0.00,,---,0.00,VWS V14.01,2013-04-02 17:05:00,
2013-04-02 12:06:00,74.3,60.0,29.97,SE,135,6.3,8.7,61,0.00,,---,0.00,VWS V14.01,2013-04-02 17:06:00,
2013-04-02 12:07:00,74.0,60.2,29.97,East,90,2.9,6.5,62,0.00,,---,0.00,VWS V14.01,2013-04-02 17:07:00,
2013-04-02 12:08:00,74.0,60.6,29.97,SE,135,6.3,6.3,63,0.00,,---,0.00,VWS V14.01,2013-04-02 17:08:00,
2013-04-02 12:09:00,73.8,60.4,29.97,SE,135,7.6,7.6,63,0.00,,---,0.00,VWS V14.01,2013-04-02 17:09:00,
2013-04-02 12:10:00,73.6,60.3,29.97,ESE,112,1.6,7.6,63,0.00,,---,0.00,VWS V14.01,2013-04-02 17:10:00,
2013-04-02 12:11:00,73.5,60.5,29.97,South,180,3.1,5.4,64,0.00,,---,0.00,VWS V14.01,2013-04-02 17:11:00,
2013-04-02 12:12:00,73.5,60.5,29.97,East,90,5.8,5.8,64,0.00,,---,0.00,VWS V14.01,2013-04-02 17:12:00,
2013-04-02 12:13:00,73.3,60.4,29.97,ESE,112,5.8,8.1,64,0.00,,---,0.00,VWS V14.01,2013-04-02 17:13:00,
2013-04-02 12:14:00,73.1,60.2,29.97,SSE,158,3.6,7.4,64,0.00,,---,0.00,VWS V14.01,2013-04-02 17:14:00,
2013-04-02 12:15:00,73.3,60.8,29.97,South,180,7.6,7.6,65,0.00,,---,0.00,VWS V14.01,2013-04-02 17:15:00,
2013-04-02 12:16:00,73.3,60.8,29.97,SSE,158,7.4,9.0,65,0.00,,---,0.00,VWS V14.01,2013-04-02 17:16:00,
2013-04-02 12:17:00,73.5,61.4,29.97,SE,135,3.1,7.4,66,0.00,,---,0.00,VWS V14.01,2013-04-02 17:17:00,
2013-04-02 12:18:00,73.6,61.6,29.97,SSW,202,0.9,3.1,66,0.00,,---,0.00,VWS V14.01,2013-04-02 17:18:00,
2013-04-02 12:19:00,73.6,61.6,29.97,East,90,4.3,4.3,66,0.00,,---,0.00,VWS V14.01,2013-04-02 17:19:00,
2013-04-02 12:20:00,73.6,60.7,29.97,South,180,6.9,7.4,64,0.00,,---,0.00,VWS V14.01,2013-04-02 17:20:00,
2013-04-02 12:21:00,73.8,60.9,29.97,South,180,2.9,6.9,64,0.00,,---,0.00,VWS V14.01,2013-04-02 17:21:00,
2013-04-02 12:22:00,73.8,60.9,29.97,SE,135,2.5,6.5,64,0.00,,---,0.00,VWS V14.01,2013-04-02 17:22:00,
2013-04-02 12:23:00,74.0,61.0,29.97,WSW,248,2.7,6.7,64,0.00,,---,0.00,VWS V14.01,2013-04-02 17:23:00,
2013-04-02 12:24:00,74.3,60.9,29.97,SW,225,2.9,3.4,63,0.00,,---,0.00,VWS V14.01,2013-04-02 17:24:00,
2013-04-02 12:25:00,74.9,61.5,29.97,ESE,112,0.9,2.9,63,0.00,,---,0.00,VWS V14.01,2013-04-02 17:25:00,
2013-04-02 12:26:00,74.9,61.5,29.97,SE,135,3.4,7.4,63,0.00,,---,0.00,VWS V14.01,2013-04-02 17:26:00,
2013-04-02 12:27:00,74.9,61.5,29.97,SE,135,4.3,6.0,63,0.00,,---,0.00,VWS V14.01,2013-04-02 17:27:00,
2013-04-02 12:28:00,74.9,61.5,29.97,East,90,2.7,5.6,63,0.00,,---,0.00,VWS V14.01,2013-04-02 17:28:00,
2013-04-02 12:29:00,74.9,61.9,29.97,SE,135,3.4,5.4,64,0.00,,---,0.00,VWS V14.01,2013-04-02 17:29:00,
2013-04-02 12:30:00,74.9,61.5,29.97,ESE,112,2.7,3.8,63,0.00,,---,0.00,VWS V14.01,2013-04-02 17:30:00,
2013-04-02 12:31:00,74.9,61.5,29.97,SE,135,7.8,7.8,63,0.00,,---,0.00,VWS V14.01,2013-04-02 17:31:00,
2013-04-02 12:32:00,74.9,61.0,29.97,SE,135,6.5,7.8,62,0.00,,---,0.00,VWS V14.01,2013-04-02 17:32:00,
2013-04-02 12:33:00,74.9,61.0,29.97,South,180,2.7,6.5,62,0.00,,---,0.00,VWS V14.01,2013-04-02 17:33:00,
2013-04-02 12:34:00,75.1,61.2,29.97,South,180,2.9,3.8,62,0.00,,---,0.00,VWS V14.01,2013-04-02 17:34:00,
2013-04-02 12:35:00,75.1,61.2,29.97,ESE,112,5.8,5.8,62,0.00,,---,0.00,VWS V14.01,2013-04-02 17:35:00,
2013-04-02 12:36:00,75.1,60.7,29.97,SSE,158,7.8,8.5,61,0.00,,---,0.00,VWS V14.01,2013-04-02 17:36:00,
2013-04-02 12:37:00,75.4,61.0,29.97,SE,135,2.7,7.8,61,0.00,,---,0.00,VWS V14.01,2013-04-02 17:37:00,
2013-04-02 12:38:00,75.8,61.4,29.97,South,180,3.1,3.1,61,0.00,,---,0.00,VWS V14.01,2013-04-02 17:38:00,
2013-04-02 12:39:00,75.9,61.5,29.97,South,180,5.4,7.2,61,0.00,,---,0.00,VWS V14.01,2013-04-02 17:39:00,
2013-04-02 12:40:00,76.3,60.5,29.97,ESE,112,9.4,9.4,58,0.00,,---,0.00,VWS V14.01,2013-04-02 17:40:00,
2013-04-02 12:41:00,76.3,60.0,29.97,ESE,112,10.1,10.5,57,0.00,,---,0.00,VWS V14.01,2013-04-02 17:41:00,
2013-04-02 12:42:00,76.1,59.8,29.97,SSW,202,7.4,10.3,57,0.00,,---,0.00,VWS V14.01,2013-04-02 17:42:00,
2013-04-02 12:43:00,76.1,60.3,29.97,ESE,112,10.7,10.7,58,0.00,,---,0.00,VWS V14.01,2013-04-02 17:43:00,
2013-04-02 12:44:00,76.1,60.3,29.97,East,90,2.9,10.7,58,0.00,,---,0.00,VWS V14.01,2013-04-02 17:44:00,
2013-04-02 12:45:00,76.1,60.3,29.97,South,180,5.8,6.0,58,0.00,,---,0.00,VWS V14.01,2013-04-02 17:45:00,
2013-04-02 12:46:00,76.1,60.3,29.97,SE,135,5.8,8.1,58,0.00,,---,0.00,VWS V14.01,2013-04-02 17:46:00,
2013-04-02 12:47:00,76.1,60.3,29.94,ESE,112,6.0,7.8,58,0.00,,---,0.00,VWS V14.01,2013-04-02 17:47:00,
2013-04-02 12:48:00,76.1,60.3,29.94,East,90,6.5,6.5,58,0.00,,---,0.00,VWS V14.01,2013-04-02 17:48:00,
2013-04-02 12:49:00,76.1,60.3,29.94,East,90,5.8,6.5,58,0.00,,---,0.00,VWS V14.01,2013-04-02 17:49:00,
2013-04-02 12:50:00,75.9,60.1,29.94,East,90,5.8,7.2,58,0.00,,---,0.00,VWS V14.01,2013-04-02 17:50:00,
2013-04-02 12:51:00,75.9,60.1,29.94,SSE,158,4.5,6.0,58,0.00,,---,0.00,VWS V14.01,2013-04-02 17:51:00,
2013-04-02 12:52:00,75.9,60.1,29.94,East,90,7.8,8.1,58,0.00,,---,0.00,VWS V14.01,2013-04-02 17:52:00,
2013-04-02 12:53:00,75.9,60.1,29.94,SE,135,5.8,8.7,58,0.00,,---,0.00,VWS V14.01,2013-04-02 17:53:00,
2013-04-02 12:54:00,75.9,60.1,29.94,East,90,7.2,7.2,58,0.00,,---,0.00,VWS V14.01,2013-04-02 17:54:00,
2013-04-02 12:55:00,76.3,60.5,29.94,ESE,112,2.0,7.2,58,0.00,,---,0.00,VWS V14.01,2013-04-02 17:55:00,
2013-04-02 12:56:00,76.5,60.1,29.94,ESE,112,1.6,2.9,57,0.00,,---,0.00,VWS V14.01,2013-04-02 17:56:00,
2013-04-02 12:57:00,76.5,60.1,29.94,SE,135,5.6,9.8,57,0.00,,---,0.00,VWS V14.01,2013-04-02 17:57:00,
2013-04-02 12:58:00,76.5,59.6,29.94,ESE,112,2.9,8.7,56,0.00,,---,0.00,VWS V14.01,2013-04-02 17:58:00,
2013-04-02 12:59:00,76.7,59.8,29.94,ESE,112,2.9,2.9,56,0.00,,---,0.00,VWS V14.01,2013-04-02 17:59:00,
2013-04-02 13:00:00,76.8,60.0,29.94,SE,135,4.0,6.0,56,0.00,,---,0.00,VWS V14.01,2013-04-02 18:00:00,
2013-04-02 13:01:00,76.7,59.8,29.94,SE,135,3.6,8.7,56,0.00,,---,0.00,VWS V14.01,2013-04-02 18:01:00,
2013-04-02 13:02:00,76.8,59.5,29.94,SSW,202,4.0,5.8,55,0.00,,---,0.00,VWS V14.01,2013-04-02 18:02:00,
2013-04-02 13:03:00,77.0,59.6,29.94,East,90,6.7,10.1,55,0.00,,---,0.00,VWS V14.01,2013-04-02 18:03:00,
2013-04-02 13:04:00,77.0,60.1,29.94,South,180,2.5,10.1,56,0.00,,---,0.00,VWS V14.01,2013-04-02 18:04:00,
2013-04-02 13:05:00,77.0,60.1,29.94,SE,135,3.1,8.1,56,0.00,,---,0.00,VWS V14.01,2013-04-02 18:05:00,
2013-04-02 13:06:00,77.0,60.1,29.94,SE,135,3.4,3.8,56,0.00,,---,0.00,VWS V14.01,2013-04-02 18:06:00,
2013-04-02 13:07:00,77.5,60.6,29.94,ESE,112,6.5,6.5,56,0.00,,---,0.00,VWS V14.01,2013-04-02 18:07:00,
2013-04-02 13:08:00,77.4,60.0,29.94,East,90,7.8,10.7,55,0.00,,---,0.00,VWS V14.01,2013-04-02 18:08:00,
2013-04-02 13:09:00,77.5,60.1,29.94,SE,135,4.9,4.9,55,0.00,,---,0.00,VWS V14.01,2013-04-02 18:09:00,
2013-04-02 13:10:00,77.2,59.8,29.94,SE,135,5.8,5.8,55,0.00,,---,0.00,VWS V14.01,2013-04-02 18:10:00,
2013-04-02 13:11:00,76.8,59.5,29.94,South,180,3.4,8.5,55,0.00,,---,0.00,VWS V14.01,2013-04-02 18:11:00,
2013-04-02 13:12:00,76.7,59.3,29.94,East,90,7.2,7.2,55,0.00,,---,0.00,VWS V14.01,2013-04-02 18:12:00,
2013-04-02 13:13:00,76.5,59.1,29.94,SE,135,3.8,7.2,55,0.00,,---,0.00,VWS V14.01,2013-04-02 18:13:00,
2013-04-02 13:14:00,76.3,59.5,29.94,East,90,2.7,8.1,56,0.00,,---,0.00,VWS V14.01,2013-04-02 18:14:00,
2013-04-02 13:15:00,76.1,59.3,29.94,SE,135,3.6,8.1,56,0.00,,---,0.00,VWS V14.01,2013-04-02 18:15:00,
2013-04-02 13:16:00,76.1,59.3,29.94,NE,45,3.6,3.6,56,0.00,,---,0.00,VWS V14.01,2013-04-02 18:16:00,
2013-04-02 13:17:00,75.9,59.6,29.94,East,90,3.6,7.2,57,0.00,,---,0.00,VWS V14.01,2013-04-02 18:17:00,
2013-04-02 13:18:00,75.2,59.0,29.94,NE,45,10.7,10.7,57,0.00,,---,0.00,VWS V14.01,2013-04-02 18:18:00,
2013-04-02 13:19:00,74.9,58.6,29.94,ESE,112,8.5,10.7,57,0.00,,---,0.00,VWS V14.01,2013-04-02 18:19:00,
2013-04-02 13:20:00,74.9,59.1,29.94,NE,45,5.6,8.5,58,0.00,,---,0.00,VWS V14.01,2013-04-02 18:20:00,
2013-04-02 13:21:00,74.7,59.0,29.94,East,90,3.8,5.6,58,0.00,,---,0.00,VWS V14.01,2013-04-02 18:21:00,
2013-04-02 13:22:00,74.3,58.6,29.94,East,90,5.4,8.1,58,0.00,,---,0.00,VWS V14.01,2013-04-02 18:22:00,
2013-04-02 13:23:00,74.3,58.6,29.94,East,90,10.5,10.5,58,0.00,,---,0.00,VWS V14.01,2013-04-02 18:23:00,
2013-04-02 13:24:00,74.0,58.8,29.94,ENE,68,7.8,10.5,59,0.00,,---,0.00,VWS V14.01,2013-04-02 18:24:00,
2013-04-02 13:25:00,73.8,59.1,29.94,South,180,8.7,8.7,60,0.00,,---,0.00,VWS V14.01,2013-04-02 18:25:00,
2013-04-02 13:26:00,73.6,58.9,29.94,SSE,158,10.1,10.1,60,0.00,,---,0.00,VWS V14.01,2013-04-02 18:26:00,
2013-04-02 13:27:00,73.6,58.9,29.94,ESE,112,2.9,10.1,60,0.00,,---,0.00,VWS V14.01,2013-04-02 18:27:00,
2013-04-02 13:28:00,73.5,59.2,29.94,ESE,112,10.1,10.1,61,0.00,,---,0.00,VWS V14.01,2013-04-02 18:28:00,
2013-04-02 13:29:00,73.5,59.2,29.94,East,90,5.8,10.1,61,0.00,,---,0.00,VWS V14.01,2013-04-02 18:29:00,
2013-04-02 13:30:00,73.3,59.0,29.94,ESE,112,2.7,10.5,61,0.00,,---,0.00,VWS V14.01,2013-04-02 18:30:00,
2013-04-02 13:31:00,73.3,59.0,29.94,SSE,158,8.7,8.7,61,0.00,,---,0.00,VWS V14.01,2013-04-02 18:31:00,
2013-04-02 13:32:00,73.1,58.9,29.94,ESE,112,5.8,10.1,61,0.00,,---,0.00,VWS V14.01,2013-04-02 18:32:00,
2013-04-02 13:33:00,72.9,59.2,29.94,ESE,112,2.9,10.5,62,0.00,,---,0.00,VWS V14.01,2013-04-02 18:33:00,
2013-04-02 13:34:00,72.8,59.4,29.94,ESE,112,3.1,8.7,63,0.00,,---,0.00,VWS V14.01,2013-04-02 18:34:00,
2013-04-02 13:35:00,72.8,59.9,29.94,ESE,112,3.8,4.3,64,0.00,,---,0.00,VWS V14.01,2013-04-02 18:35:00,
2013-04-02 13:36:00,72.6,59.7,29.94,South,180,5.4,6.5,64,0.00,,---,0.00,VWS V14.01,2013-04-02 18:36:00,
2013-04-02 13:37:00,72.6,59.7,29.94,NE,45,3.4,6.5,64,0.00,,---,0.00,VWS V14.01,2013-04-02 18:37:00,
2013-04-02 13:38:00,72.4,60.0,29.94,East,90,4.0,6.0,65,0.00,,---,0.00,VWS V14.01,2013-04-02 18:38:00,
2013-04-02 13:39:00,72.2,59.8,29.94,SE,135,7.4,7.8,65,0.00,,---,0.00,VWS V14.01,2013-04-02 18:39:00,
2013-04-02 13:40:00,72.2,59.8,29.94,ENE,68,6.0,7.4,65,0.00,,---,0.00,VWS V14.01,2013-04-02 18:40:00,
2013-04-02 13:41:00,71.9,59.9,29.94,East,90,7.8,7.8,66,0.00,,---,0.00,VWS V14.01,2013-04-02 18:41:00,
2013-04-02 13:42:00,71.9,59.9,29.94,SE,135,7.2,7.2,66,0.00,,---,0.00,VWS V14.01,2013-04-02 18:42:00,
2013-04-02 13:43:00,71.9,59.9,29.94,East,90,2.7,7.2,66,0.00,,---,0.00,VWS V14.01,2013-04-02 18:43:00,
2013-04-02 13:44:00,71.7,60.2,29.94,East,90,3.6,7.2,67,0.00,,---,0.00,VWS V14.01,2013-04-02 18:44:00,
2013-04-02 13:45:00,71.5,60.0,29.94,East,90,5.6,7.6,67,0.00,,---,0.00,VWS V14.01,2013-04-02 18:45:00,
2013-04-02 13:46:00,71.3,59.8,29.94,NE,45,8.1,11.0,67,0.00,,---,0.00,VWS V14.01,2013-04-02 18:46:00,
2013-04-02 13:47:00,71.2,59.7,29.91,East,90,6.0,8.1,67,0.00,,---,0.00,VWS V14.01,2013-04-02 18:47:00,
2013-04-02 13:48:00,71.2,59.7,29.91,SSE,158,5.6,8.1,67,0.00,,---,0.00,VWS V14.01,2013-04-02 18:48:00,
2013-04-02 13:49:00,71.0,59.5,29.91,SE,135,3.4,5.8,67,0.00,,---,0.00,VWS V14.01,2013-04-02 18:49:00,
2013-04-02 13:50:00,71.0,59.5,29.91,ENE,68,3.1,6.0,67,0.00,,---,0.00,VWS V14.01,2013-04-02 18:50:00,
2013-04-02 13:51:00,71.0,59.9,29.91,ESE,112,3.4,10.7,68,0.00,,---,0.00,VWS V14.01,2013-04-02 18:51:00,
2013-04-02 13:52:00,71.0,59.9,29.91,ESE,112,5.8,5.8,68,0.00,,---,0.00,VWS V14.01,2013-04-02 18:52:00,
2013-04-02 13:53:00,70.8,59.7,29.91,East,90,2.9,5.8,68,0.00,,---,0.00,VWS V14.01,2013-04-02 18:53:00,
2013-04-02 13:54:00,70.8,59.7,29.91,East,90,10.1,10.1,68,0.00,,---,0.00,VWS V14.01,2013-04-02 18:54:00,
2013-04-02 13:55:00,70.8,60.1,29.91,East,90,5.4,10.1,69,0.00,,---,0.00,VWS V14.01,2013-04-02 18:55:00,
2013-04-02 13:56:00,70.8,60.1,29.91,East,90,11.0,11.0,69,0.00,,---,0.00,VWS V14.01,2013-04-02 18:56:00,
2013-04-02 13:57:00,70.8,60.1,29.91,SE,135,8.1,11.0,69,0.00,,---,0.00,VWS V14.01,2013-04-02 18:57:00,
2013-04-02 13:58:00,70.6,60.4,29.91,East,90,6.3,10.7,70,0.00,,---,0.00,VWS V14.01,2013-04-02 18:58:00,
2013-04-02 13:59:00,70.6,60.4,29.91,ESE,112,7.6,8.5,70,0.00,,---,0.00,VWS V14.01,2013-04-02 18:59:00,
2013-04-02 14:00:00,70.4,60.6,29.91,East,90,3.4,7.6,71,0.00,,---,0.00,VWS V14.01,2013-04-02 19:00:00,
2013-04-02 14:01:00,70.3,60.4,29.91,SE,135,10.3,10.3,71,0.00,,---,0.00,VWS V14.01,2013-04-02 19:01:00,
2013-04-02 14:02:00,70.1,61.0,29.85,NE,45,8.1,10.3,73,0.00,,---,0.00,VWS V14.01,2013-04-02 19:02:00,
2013-04-02 14:03:00,69.9,61.3,29.85,NE,45,5.4,8.1,74,0.00,,---,0.00,VWS V14.01,2013-04-02 19:03:00,
2013-04-02 14:04:00,69.9,61.3,29.85,ESE,112,8.5,8.5,74,0.00,,---,0.00,VWS V14.01,2013-04-02 19:04:00,
2013-04-02 14:05:00,69.4,61.1,29.85,NE,45,4.9,10.5,75,0.00,,---,0.00,VWS V14.01,2013-04-02 19:05:00,
2013-04-02 14:06:00,69.2,61.0,29.85,ESE,112,2.5,7.8,75,0.00,,---,0.00,VWS V14.01,2013-04-02 19:06:00,
2013-04-02 14:07:00,69.2,61.0,29.85,NW,315,2.5,4.3,75,0.00,,---,0.00,VWS V14.01,2013-04-02 19:07:00,
2013-04-02 14:08:00,69.0,60.8,29.85,East,90,1.1,2.7,75,0.00,,---,0.00,VWS V14.01,2013-04-02 19:08:00,
2013-04-02 14:09:00,69.0,61.2,29.85,East,90,3.6,7.4,76,0.00,,---,0.00,VWS V14.01,2013-04-02 19:09:00,
2013-04-02 14:10:00,69.0,61.2,29.85,East,90,5.6,5.6,76,0.00,,---,0.00,VWS V14.01,2013-04-02 19:10:00,
2013-04-02 14:11:00,68.8,61.3,29.85,NNE,22,0.0,5.6,77,0.00,,---,0.00,VWS V14.01,2013-04-02 19:11:00,
2013-04-02 14:12:00,68.7,61.2,29.85,West,270,1.1,5.4,77,0.00,,---,0.00,VWS V14.01,2013-04-02 19:12:00,
2013-04-02 14:13:00,68.7,61.2,29.85,NW,315,2.9,2.9,77,0.00,,---,0.00,VWS V14.01,2013-04-02 19:13:00,
2013-04-02 14:14:00,68.7,61.5,29.85,WSW,248,4.7,4.7,78,0.00,,---,0.00,VWS V14.01,2013-04-02 19:14:00,
2013-04-02 14:15:00,68.7,61.9,29.85,West,270,3.6,4.7,79,0.00,,---,0.00,VWS V14.01,2013-04-02 19:15:00,
2013-04-02 14:16:00,68.5,61.7,29.85,WSW,248,8.5,8.5,79,0.00,,---,0.00,VWS V14.01,2013-04-02 19:16:00,
2013-04-02 14:17:00,68.5,62.1,29.91,West,270,4.3,8.5,80,0.00,,---,0.00,VWS V14.01,2013-04-02 19:17:00,
2013-04-02 14:18:00,67.8,60.3,29.91,SW,225,5.6,6.5,77,0.00,,---,0.00,VWS V14.01,2013-04-02 19:18:00,
2013-04-02 14:19:00,67.4,59.2,29.91,SSW,202,7.2,10.7,75,0.00,,---,0.00,VWS V14.01,2013-04-02 19:19:00,
2013-04-02 14:20:00,67.1,58.9,29.91,WSW,248,6.0,10.1,75,0.00,,---,0.00,VWS V14.01,2013-04-02 19:20:00,
2013-04-02 14:21:00,66.5,58.8,29.91,NNW,338,10.3,10.3,76,0.00,,---,0.00,VWS V14.01,2013-04-02 19:21:00,
2013-04-02 14:22:00,66.4,59.7,29.91,North,0,8.1,12.5,79,0.00,,---,0.00,VWS V14.01,2013-04-02 19:22:00,
2013-04-02 14:23:00,66.2,60.2,29.91,SW,225,14.1,17.5,81,0.00,,---,0.00,VWS V14.01,2013-04-02 19:23:00,
2013-04-02 14:24:00,66.0,60.7,29.91,NNW,338,9.8,14.1,83,0.00,,---,0.00,VWS V14.01,2013-04-02 19:24:00,
2013-04-02 14:25:00,65.7,60.7,29.91,WNW,292,8.7,9.8,84,0.00,,---,0.00,VWS V14.01,2013-04-02 19:25:00,
2013-04-02 14:26:00,64.6,60.3,29.91,NW,315,23.3,26.0,86,0.00,,---,0.00,VWS V14.01,2013-04-02 19:26:00,
2013-04-02 14:27:00,63.9,60.0,29.91,WNW,292,25.5,30.2,87,0.04,,---,0.04,VWS V14.01,2013-04-02 19:27:00,
2013-04-02 14:28:00,63.5,59.9,29.91,NW,315,22.2,22.2,88,0.16,,---,0.16,VWS V14.01,2013-04-02 19:28:00,
2013-04-02 14:29:00,63.2,59.9,29.91,NW,315,25.1,25.1,89,0.25,,---,0.25,VWS V14.01,2013-04-02 19:29:00,
2013-04-02 14:30:00,63.0,60.0,29.91,North,0,30.9,30.9,90,0.37,,---,0.37,VWS V14.01,2013-04-02 19:30:00,
2013-04-02 14:31:00,62.6,60.0,29.91,North,0,16.3,32.4,91,0.50,,---,0.50,VWS V14.01,2013-04-02 19:31:00,